Time,TemperatureF,DewpointF,PressureIn,WindDirection,WindDirectionDegrees,WindSpeedMPH,WindSpeedGustMPH,Humidity,HourlyPrecipIn,Conditions,Clouds,dailyrainin,SoftwareType,DateUTC
2013-05-30 00:00:00,65.2,63.1,30.01,West,280,1.0,5.0,93,0.31,,SKC,0.75,VWS V14.01,2013-05-30 04:00:00,
2013-05-30 00:01:00,64.7,63.2,30.02,WNW,289,0.0,0.0,95,0.17,,SKC,0.17,VWS V14.01,2013-05-30 04:01:00,
2013-05-30 00:05:00,65.2,63.1,30.01,SSW,203,0.0,1.0,93,0.32,,SKC,0.01,VWS V14.01,2013-05-30 04:05:00,
2013-05-30 00:06:00,64.7,63.2,30.02,WNW,288,0.0,0.0,95,0.16,,SKC,0.17,VWS V14.01,2013-05-30 04:06:00,
2013-05-30 00:07:00,64.7,63.2,30.02,WNW,295,0.0,0.0,95,0.16,,SKC,0.17,VWS V14.01,2013-05-30 04:07:00,
2013-05-30 00:10:00,65.2,63.1,30.01,West,261,0.0,3.0,93,0.34,,SKC,0.03,VWS V14.01,2013-05-30 04:10:00,
2013-05-30 00:11:00,64.5,63.0,30.02,WNW,295,1.0,1.0,95,0.15,,SKC,0.18,VWS V14.01,2013-05-30 04:11:00,
2013-05-30 00:12:00,64.5,63.0,30.02,WNW,291,1.0,1.0,95,0.15,,SKC,0.18,VWS V14.01,2013-05-30 04:12:00,
2013-05-30 00:15:00,65.2,63.1,30.01,SSE,165,0.0,3.0,93,0.20,,SKC,0.04,VWS V14.01,2013-05-30 04:15:00,
2013-05-30 00:17:00,64.5,63.0,30.04,WNW,292,1.0,2.0,95,0.15,,SKC,0.19,VWS V14.01,2013-05-30 04:17:00,
2013-05-30 00:19:00,64.5,63.0,30.04,WNW,287,0.0,2.0,95,0.15,,SKC,0.19,VWS V14.01,2013-05-30 04:19:00,
2013-05-30 00:20:00,65.2,63.4,30.01,SSE,152,0.0,0.0,94,0.16,,SKC,0.06,VWS V14.01,2013-05-30 04:20:00,
2013-05-30 00:22:00,64.5,63.0,30.04,WNW,284,0.0,0.0,95,0.13,,SKC,0.19,VWS V14.01,2013-05-30 04:22:00,
2013-05-30 00:23:00,64.5,63.0,30.04,WNW,284,0.0,0.0,95,0.13,,SKC,0.19,VWS V14.01,2013-05-30 04:23:00,
2013-05-30 00:24:00,64.5,63.0,30.04,WNW,292,0.0,0.0,95,0.13,,SKC,0.19,VWS V14.01,2013-05-30 04:24:00,
2013-05-30 00:25:00,65.0,63.2,30.01,WNW,282,0.0,3.0,94,0.13,,SKC,0.08,VWS V14.01,2013-05-30 04:25:00,
2013-05-30 00:27:00,64.3,62.8,30.04,WNW,285,0.0,0.0,95,0.11,,SKC,0.19,VWS V14.01,2013-05-30 04:27:00,
2013-05-30 00:28:00,64.3,62.8,30.04,WNW,285,0.0,0.0,95,0.11,,SKC,0.19,VWS V14.01,2013-05-30 04:28:00,
2013-05-30 00:29:00,64.3,62.8,30.01,WNW,285,0.0,0.0,95,0.11,,SKC,0.19,VWS V14.01,2013-05-30 04:29:00,
2013-05-30 00:30:00,64.3,62.8,30.01,WNW,285,0.0,0.0,95,0.09,,SKC,0.19,VWS V14.01,2013-05-30 04:30:00,
2013-05-30 00:32:00,64.3,62.8,30.01,WNW,292,0.0,0.0,95,0.09,,SKC,0.19,VWS V14.01,2013-05-30 04:32:00,
2013-05-30 00:33:00,64.3,62.8,30.01,WNW,292,0.0,0.0,95,0.09,,SKC,0.19,VWS V14.01,2013-05-30 04:33:00,
2013-05-30 00:35:00,64.3,62.8,30.01,WNW,285,0.0,0.0,95,0.09,,SKC,0.19,VWS V14.01,2013-05-30 04:35:00,
2013-05-30 00:38:00,64.3,62.8,30.01,WNW,287,0.0,0.0,95,0.07,,SKC,0.19,VWS V14.01,2013-05-30 04:38:00,
2013-05-30 00:40:00,64.3,62.8,30.01,WNW,291,0.0,0.0,95,0.07,,SKC,0.19,VWS V14.01,2013-05-30 04:40:00,
2013-05-30 00:41:00,64.3,62.8,30.01,WNW,291,0.0,0.0,95,0.05,,SKC,0.19,VWS V14.01,2013-05-30 04:41:00,
2013-05-30 00:43:00,64.3,62.8,30.01,WNW,291,0.0,0.0,95,0.05,,SKC,0.19,VWS V14.01,2013-05-30 04:43:00,
2013-05-30 00:44:00,64.3,62.8,30.01,WNW,291,0.0,0.0,95,0.05,,SKC,0.19,VWS V14.01,2013-05-30 04:44:00,
2013-05-30 00:45:00,64.3,62.8,30.00,WNW,285,0.0,0.0,95,0.05,,SKC,0.19,VWS V14.01,2013-05-30 04:45:00,
2013-05-30 00:46:00,64.2,62.7,30.00,WNW,289,0.0,0.0,95,0.04,,SKC,0.19,VWS V14.01,2013-05-30 04:46:00,
2013-05-30 00:48:00,64.2,62.7,30.00,WNW,291,0.0,0.0,95,0.04,,SKC,0.19,VWS V14.01,2013-05-30 04:48:00,
2013-05-30 00:49:00,64.2,62.7,30.00,WNW,288,0.0,0.0,95,0.04,,SKC,0.19,VWS V14.01,2013-05-30 04:49:00,
2013-05-30 00:50:00,64.2,62.7,30.00,WNW,287,0.0,0.0,95,0.04,,SKC,0.19,VWS V14.01,2013-05-30 04:50:00,
2013-05-30 00:51:00,64.2,62.7,30.00,WNW,291,0.0,0.0,95,0.04,,SKC,0.19,VWS V14.01,2013-05-30 04:51:00,
2013-05-30 00:53:00,64.2,62.7,30.00,WNW,292,0.0,0.0,95,0.04,,SKC,0.19,VWS V14.01,2013-05-30 04:53:00,
2013-05-30 00:54:00,64.2,62.7,30.00,WNW,292,0.0,0.0,95,0.04,,SKC,0.19,VWS V14.01,2013-05-30 04:54:00,
2013-05-30 00:55:00,64.2,62.7,30.00,WNW,287,0.0,0.0,95,0.03,,SKC,0.19,VWS V14.01,2013-05-30 04:55:00,
2013-05-30 00:57:00,64.2,62.7,30.00,WNW,294,0.0,0.0,95,0.03,,SKC,0.19,VWS V14.01,2013-05-30 04:57:00,
2013-05-30 00:59:00,64.2,62.7,30.00,WNW,292,0.0,0.0,95,0.03,,SKC,0.19,VWS V14.01,2013-05-30 04:59:00,
2013-05-30 01:00:00,64.2,62.7,30.00,WNW,288,0.0,0.0,95,0.03,,SKC,0.19,VWS V14.01,2013-05-30 05:00:00,
2013-05-30 01:02:00,64.2,62.7,30.00,WNW,288,0.0,0.0,95,0.02,,SKC,0.19,VWS V14.01,2013-05-30 05:02:00,
2013-05-30 01:04:00,64.2,62.7,30.00,WNW,289,0.0,0.0,95,0.02,,SKC,0.19,VWS V14.01,2013-05-30 05:04:00,
2013-05-30 01:05:00,64.2,62.7,30.00,WNW,292,0.0,0.0,95,0.02,,SKC,0.19,VWS V14.01,2013-05-30 05:05:00,
2013-05-30 01:06:00,64.2,62.7,30.00,WNW,288,0.0,0.0,95,0.02,,SKC,0.19,VWS V14.01,2013-05-30 05:06:00,
2013-05-30 01:08:00,64.2,62.7,30.00,WNW,294,0.0,0.0,95,0.02,,SKC,0.19,VWS V14.01,2013-05-30 05:08:00,
2013-05-30 01:09:00,64.2,62.7,30.00,WNW,294,0.0,0.0,95,0.02,,SKC,0.19,VWS V14.01,2013-05-30 05:09:00,
2013-05-30 01:10:00,64.7,63.2,30.02,WNW,295,0.0,0.0,95,0.17,,SKC,0.18,VWS V14.01,2013-05-30 05:10:00,
2013-05-30 01:11:00,64.2,62.7,30.00,WNW,289,0.0,0.0,95,0.01,,SKC,0.19,VWS V14.01,2013-05-30 05:11:00,
2013-05-30 01:13:00,64.2,62.7,30.00,WNW,294,0.0,0.0,95,0.01,,SKC,0.19,VWS V14.01,2013-05-30 05:13:00,
2013-05-30 01:15:00,64.2,62.7,30.00,WNW,294,0.0,0.0,95,0.01,,SKC,0.19,VWS V14.01,2013-05-30 05:15:00,
2013-05-30 01:16:00,64.2,62.7,30.00,WNW,292,0.0,0.0,95,0.00,,SKC,0.19,VWS V14.01,2013-05-30 05:16:00,
2013-05-30 01:17:00,64.2,62.7,30.00,WNW,295,0.0,0.0,95,0.00,,SKC,0.19,VWS V14.01,2013-05-30 05:17:00,
2013-05-30 01:18:00,64.2,62.7,30.00,WNW,294,0.0,0.0,95,0.00,,SKC,0.19,VWS V14.01,2013-05-30 05:18:00,
2013-05-30 01:20:00,64.2,62.7,30.00,WNW,292,0.0,0.0,95,0.00,,SKC,0.19,VWS V14.01,2013-05-30 05:20:00,
2013-05-30 01:21:00,64.2,62.7,30.00,WNW,288,0.0,0.0,95,0.00,,SKC,0.19,VWS V14.01,2013-05-30 05:21:00,
2013-05-30 01:22:00,64.2,62.7,30.00,WNW,285,0.0,0.0,95,0.00,,SKC,0.19,VWS V14.01,2013-05-30 05:22:00,
2013-05-30 01:23:00,64.2,62.7,30.00,WNW,292,0.0,0.0,95,0.00,,SKC,0.19,VWS V14.01,2013-05-30 05:23:00,
2013-05-30 01:25:00,64.2,62.7,30.00,WNW,291,0.0,0.0,95,0.00,,SKC,0.19,VWS V14.01,2013-05-30 05:25:00,
2013-05-30 01:26:00,64.2,62.7,30.00,WNW,292,0.0,0.0,95,0.00,,SKC,0.19,VWS V14.01,2013-05-30 05:26:00,
2013-05-30 01:28:00,64.2,62.7,30.00,WNW,291,0.0,0.0,95,0.00,,SKC,0.19,VWS V14.01,2013-05-30 05:28:00,
2013-05-30 01:29:00,64.2,62.7,30.00,WNW,292,0.0,0.0,95,0.00,,SKC,0.19,VWS V14.01,2013-05-30 05:29:00,
2013-05-30 01:30:00,64.2,62.7,30.00,WNW,287,0.0,0.0,95,0.00,,SKC,0.19,VWS V14.01,2013-05-30 05:30:00,
2013-05-30 01:31:00,64.2,62.7,30.00,WNW,292,0.0,0.0,95,0.00,,SKC,0.19,VWS V14.01,2013-05-30 05:31:00,
2013-05-30 01:33:00,64.2,62.7,30.00,WNW,291,0.0,0.0,95,0.00,,SKC,0.19,VWS V14.01,2013-05-30 05:33:00,
2013-05-30 01:34:00,64.3,62.8,30.00,WNW,291,0.0,0.0,95,0.00,,SKC,0.19,VWS V14.01,2013-05-30 05:34:00,
2013-05-30 01:35:00,64.3,62.8,30.00,WNW,292,0.0,0.0,95,0.00,,SKC,0.19,VWS V14.01,2013-05-30 05:35:00,
2013-05-30 01:36:00,64.3,62.8,30.00,WNW,294,0.0,0.0,95,0.00,,SKC,0.19,VWS V14.01,2013-05-30 05:36:00,
2013-05-30 01:39:00,64.3,62.8,30.00,WNW,294,0.0,0.0,95,0.00,,SKC,0.19,VWS V14.01,2013-05-30 05:39:00,
2013-05-30 01:40:00,64.3,62.8,30.01,WNW,291,0.0,0.0,95,0.07,,SKC,0.19,VWS V14.01,2013-05-30 05:40:00,
2013-05-30 01:41:00,64.3,62.8,30.00,WNW,294,0.0,0.0,95,0.00,,SKC,0.19,VWS V14.01,2013-05-30 05:41:00,
2013-05-30 01:44:00,64.3,62.8,29.99,WNW,294,0.0,0.0,95,0.00,,SKC,0.19,VWS V14.01,2013-05-30 05:44:00,
2013-05-30 01:45:00,64.3,62.8,29.99,WNW,292,0.0,0.0,95,0.00,,SKC,0.19,VWS V14.01,2013-05-30 05:45:00,
2013-05-30 01:46:00,64.3,62.8,29.99,WNW,292,0.0,0.0,95,0.00,,SKC,0.19,VWS V14.01,2013-05-30 05:46:00,
2013-05-30 01:47:00,64.3,62.8,29.99,WNW,291,0.0,0.0,95,0.00,,SKC,0.19,VWS V14.01,2013-05-30 05:47:00,
2013-05-30 01:50:00,64.3,63.1,29.99,WNW,292,0.0,0.0,96,0.00,,SKC,0.19,VWS V14.01,2013-05-30 05:50:00,
2013-05-30 01:51:00,64.3,63.1,29.99,WNW,287,0.0,0.0,96,0.00,,SKC,0.19,VWS V14.01,2013-05-30 05:51:00,
2013-05-30 01:52:00,64.3,63.1,29.99,WNW,291,0.0,0.0,96,0.00,,SKC,0.19,VWS V14.01,2013-05-30 05:52:00,
2013-05-30 01:55:00,64.5,63.3,29.99,WNW,291,0.0,0.0,96,0.00,,SKC,0.19,VWS V14.01,2013-05-30 05:55:00,
2013-05-30 01:56:00,64.5,63.3,29.99,WNW,292,0.0,0.0,96,0.00,,SKC,0.19,VWS V14.01,2013-05-30 05:56:00,
2013-05-30 01:57:00,64.5,63.3,29.99,WNW,292,0.0,0.0,96,0.00,,SKC,0.19,VWS V14.01,2013-05-30 05:57:00,
2013-05-30 01:58:00,64.5,63.3,29.99,WNW,291,0.0,0.0,96,0.00,,SKC,0.19,VWS V14.01,2013-05-30 05:58:00,
2013-05-30 02:00:00,64.5,63.3,29.99,WNW,291,0.0,0.0,96,0.00,,SKC,0.19,VWS V14.01,2013-05-30 06:00:00,
2013-05-30 02:02:00,64.5,63.3,29.99,WNW,289,0.0,0.0,96,0.00,,SKC,0.19,VWS V14.01,2013-05-30 06:02:00,
2013-05-30 02:03:00,64.5,63.3,29.99,WNW,292,0.0,0.0,96,0.00,,SKC,0.19,VWS V14.01,2013-05-30 06:03:00,
2013-05-30 02:05:00,64.5,63.3,29.99,WNW,289,0.0,0.0,96,0.00,,SKC,0.19,VWS V14.01,2013-05-30 06:05:00,
2013-05-30 02:06:00,64.5,63.3,29.99,WNW,291,0.0,0.0,96,0.00,,SKC,0.19,VWS V14.01,2013-05-30 06:06:00,
2013-05-30 02:07:00,64.5,63.3,29.99,WNW,291,0.0,0.0,96,0.00,,SKC,0.19,VWS V14.01,2013-05-30 06:07:00,
2013-05-30 02:08:00,64.5,63.3,29.99,WNW,287,0.0,0.0,96,0.00,,SKC,0.19,VWS V14.01,2013-05-30 06:08:00,
2013-05-30 02:09:00,64.5,63.3,29.99,WNW,289,0.0,0.0,96,0.00,,SKC,0.19,VWS V14.01,2013-05-30 06:09:00,
2013-05-30 02:10:00,64.5,63.3,29.99,WNW,291,0.0,0.0,96,0.00,,SKC,0.19,VWS V14.01,2013-05-30 06:10:00,
2013-05-30 02:11:00,64.5,63.3,29.99,WNW,289,0.0,0.0,96,0.00,,SKC,0.19,VWS V14.01,2013-05-30 06:11:00,
2013-05-30 02:12:00,64.5,63.3,29.99,WNW,284,0.0,0.0,96,0.00,,SKC,0.19,VWS V14.01,2013-05-30 06:12:00,
2013-05-30 02:13:00,64.5,63.3,29.99,WNW,292,0.0,0.0,96,0.00,,SKC,0.19,VWS V14.01,2013-05-30 06:13:00,
2013-05-30 02:14:00,64.5,63.3,29.99,WNW,292,0.0,0.0,96,0.00,,SKC,0.19,VWS V14.01,2013-05-30 06:14:00,
2013-05-30 02:15:00,64.5,63.3,29.99,WNW,291,0.0,0.0,96,0.00,,SKC,0.19,VWS V14.01,2013-05-30 06:15:00,
2013-05-30 02:16:00,64.5,63.3,29.99,WNW,287,0.0,0.0,96,0.00,,SKC,0.19,VWS V14.01,2013-05-30 06:16:00,
2013-05-30 02:17:00,64.5,63.3,29.99,WNW,289,0.0,0.0,96,0.00,,SKC,0.19,VWS V14.01,2013-05-30 06:17:00,
2013-05-30 02:19:00,64.5,63.3,29.99,WNW,285,0.0,0.0,96,0.00,,SKC,0.19,VWS V14.01,2013-05-30 06:19:00,
2013-05-30 02:20:00,64.2,62.7,30.00,WNW,292,0.0,0.0,95,0.00,,SKC,0.19,VWS V14.01,2013-05-30 06:20:00,
2013-05-30 02:21:00,64.5,63.3,29.99,WNW,292,0.0,0.0,96,0.00,,SKC,0.19,VWS V14.01,2013-05-30 06:21:00,
2013-05-30 02:22:00,64.5,63.3,29.99,WNW,292,0.0,0.0,96,0.00,,SKC,0.19,VWS V14.01,2013-05-30 06:22:00,
2013-05-30 02:23:00,64.5,63.3,29.99,WNW,288,0.0,0.0,96,0.00,,SKC,0.19,VWS V14.01,2013-05-30 06:23:00,
2013-05-30 02:25:00,64.5,63.3,29.99,WNW,292,0.0,0.0,96,0.00,,SKC,0.19,VWS V14.01,2013-05-30 06:25:00,
2013-05-30 02:26:00,64.5,63.3,29.99,WNW,292,0.0,0.0,96,0.00,,SKC,0.19,VWS V14.01,2013-05-30 06:26:00,
2013-05-30 02:28:00,64.5,63.3,29.99,WNW,291,0.0,0.0,96,0.00,,SKC,0.19,VWS V14.01,2013-05-30 06:28:00,
2013-05-30 02:29:00,64.5,63.3,29.99,WNW,289,0.0,0.0,96,0.00,,SKC,0.19,VWS V14.01,2013-05-30 06:29:00,
2013-05-30 02:30:00,64.5,63.3,29.99,WNW,292,0.0,0.0,96,0.00,,SKC,0.19,VWS V14.01,2013-05-30 06:30:00,
2013-05-30 02:31:00,64.5,63.3,29.99,WNW,291,0.0,0.0,96,0.00,,SKC,0.19,VWS V14.01,2013-05-30 06:31:00,
2013-05-30 02:33:00,64.5,63.3,29.99,WNW,292,0.0,0.0,96,0.00,,SKC,0.19,VWS V14.01,2013-05-30 06:33:00,
2013-05-30 02:34:00,64.5,63.3,29.99,WNW,292,0.0,0.0,96,0.00,,SKC,0.19,VWS V14.01,2013-05-30 06:34:00,
2013-05-30 02:35:00,64.5,63.3,29.99,WNW,291,0.0,0.0,96,0.00,,SKC,0.19,VWS V14.01,2013-05-30 06:35:00,
2013-05-30 02:36:00,64.5,63.3,29.99,WNW,289,0.0,0.0,96,0.00,,SKC,0.19,VWS V14.01,2013-05-30 06:36:00,
2013-05-30 02:38:00,64.5,63.3,29.99,WNW,292,0.0,0.0,96,0.00,,SKC,0.19,VWS V14.01,2013-05-30 06:38:00,
2013-05-30 02:39:00,64.5,63.3,29.99,WNW,292,0.0,0.0,96,0.00,,SKC,0.19,VWS V14.01,2013-05-30 06:39:00,
2013-05-30 02:40:00,64.5,63.3,29.99,WNW,292,0.0,0.0,96,0.00,,SKC,0.19,VWS V14.01,2013-05-30 06:40:00,
2013-05-30 02:42:00,64.5,63.3,29.99,WNW,291,0.0,0.0,96,0.00,,SKC,0.19,VWS V14.01,2013-05-30 06:42:00,
2013-05-30 02:43:00,64.5,63.3,29.99,WNW,288,0.0,0.0,96,0.00,,SKC,0.19,VWS V14.01,2013-05-30 06:43:00,
2013-05-30 02:44:00,64.5,63.3,29.99,WNW,284,0.0,0.0,96,0.00,,SKC,0.19,VWS V14.01,2013-05-30 06:44:00,
2013-05-30 02:45:00,64.5,63.3,29.99,WNW,285,0.0,0.0,96,0.00,,SKC,0.19,VWS V14.01,2013-05-30 06:45:00,
2013-05-30 02:46:00,64.3,63.1,29.99,WNW,289,0.0,0.0,96,0.00,,SKC,0.19,VWS V14.01,2013-05-30 06:46:00,
2013-05-30 02:47:00,64.3,63.1,29.99,WNW,287,0.0,0.0,96,0.00,,SKC,0.19,VWS V14.01,2013-05-30 06:47:00,
2013-05-30 02:49:00,64.3,63.1,29.99,WNW,285,0.0,0.0,96,0.00,,SKC,0.19,VWS V14.01,2013-05-30 06:49:00,
2013-05-30 02:50:00,64.3,63.1,29.99,WNW,291,0.0,0.0,96,0.00,,SKC,0.19,VWS V14.01,2013-05-30 06:50:00,
2013-05-30 02:51:00,64.3,63.1,29.99,WNW,291,0.0,0.0,96,0.00,,SKC,0.19,VWS V14.01,2013-05-30 06:51:00,
2013-05-30 02:52:00,64.3,63.1,29.99,WNW,291,0.0,0.0,96,0.00,,SKC,0.19,VWS V14.01,2013-05-30 06:52:00,
2013-05-30 02:53:00,64.3,63.1,29.99,WNW,288,0.0,0.0,96,0.00,,SKC,0.19,VWS V14.01,2013-05-30 06:53:00,
2013-05-30 02:54:00,64.3,63.1,29.99,WNW,291,0.0,0.0,96,0.00,,SKC,0.19,VWS V14.01,2013-05-30 06:54:00,
2013-05-30 02:55:00,64.3,63.1,29.99,WNW,288,0.0,0.0,96,0.00,,SKC,0.19,VWS V14.01,2013-05-30 06:55:00,
2013-05-30 02:57:00,64.3,63.1,29.99,WNW,285,0.0,0.0,96,0.00,,SKC,0.19,VWS V14.01,2013-05-30 06:57:00,
2013-05-30 02:58:00,64.3,63.1,29.99,WNW,284,0.0,0.0,96,0.00,,SKC,0.19,VWS V14.01,2013-05-30 06:58:00,
2013-05-30 02:59:00,64.3,63.1,29.99,WNW,291,0.0,0.0,96,0.00,,SKC,0.19,VWS V14.01,2013-05-30 06:59:00,
2013-05-30 03:00:00,64.3,63.1,29.99,WNW,291,0.0,0.0,96,0.00,,SKC,0.19,VWS V14.01,2013-05-30 07:00:00,
2013-05-30 03:02:00,64.3,63.1,29.99,WNW,292,0.0,0.0,96,0.00,,SKC,0.19,VWS V14.01,2013-05-30 07:02:00,
2013-05-30 03:03:00,64.3,63.1,29.99,WNW,292,0.0,0.0,96,0.00,,SKC,0.19,VWS V14.01,2013-05-30 07:03:00,
2013-05-30 03:05:00,64.3,63.1,29.99,WNW,292,0.0,0.0,96,0.00,,SKC,0.19,VWS V14.01,2013-05-30 07:05:00,
2013-05-30 03:07:00,64.2,63.0,29.99,WNW,288,0.0,0.0,96,0.00,,SKC,0.19,VWS V14.01,2013-05-30 07:07:00,
2013-05-30 03:08:00,64.2,63.0,29.99,WNW,291,0.0,0.0,96,0.00,,SKC,0.19,VWS V14.01,2013-05-30 07:08:00,
2013-05-30 03:09:00,64.2,63.0,29.99,WNW,292,0.0,0.0,96,0.00,,SKC,0.19,VWS V14.01,2013-05-30 07:09:00,
2013-05-30 03:10:00,64.2,63.0,29.99,WNW,292,0.0,0.0,96,0.00,,SKC,0.19,VWS V14.01,2013-05-30 07:10:00,
2013-05-30 03:11:00,64.2,63.0,29.99,WNW,292,0.0,0.0,96,0.00,,SKC,0.19,VWS V14.01,2013-05-30 07:11:00,
2013-05-30 03:13:00,64.2,63.0,29.99,WNW,288,0.0,0.0,96,0.00,,SKC,0.19,VWS V14.01,2013-05-30 07:13:00,
2013-05-30 03:14:00,64.2,63.0,29.99,WNW,292,0.0,0.0,96,0.00,,SKC,0.19,VWS V14.01,2013-05-30 07:14:00,
2013-05-30 03:15:00,64.5,63.3,29.99,WNW,287,0.0,0.0,96,0.00,,SKC,0.19,VWS V14.01,2013-05-30 07:15:00,
2013-05-30 03:16:00,64.2,63.0,29.99,WNW,292,0.0,0.0,96,0.00,,SKC,0.19,VWS V14.01,2013-05-30 07:16:00,
2013-05-30 03:19:00,64.2,63.0,29.99,WNW,292,0.0,0.0,96,0.00,,SKC,0.19,VWS V14.01,2013-05-30 07:19:00,
2013-05-30 03:20:00,64.5,63.3,29.99,WNW,287,0.0,0.0,96,0.00,,SKC,0.19,VWS V14.01,2013-05-30 07:20:00,
2013-05-30 03:21:00,64.2,63.0,29.99,WNW,291,0.0,0.0,96,0.00,,SKC,0.19,VWS V14.01,2013-05-30 07:21:00,
2013-05-30 03:22:00,64.2,63.0,29.99,WNW,287,0.0,0.0,96,0.00,,SKC,0.19,VWS V14.01,2013-05-30 07:22:00,
2013-05-30 03:24:00,64.0,62.8,29.99,WNW,291,0.0,0.0,96,0.00,,SKC,0.19,VWS V14.01,2013-05-30 07:24:00,
2013-05-30 03:25:00,64.0,62.8,29.99,WNW,292,0.0,0.0,96,0.00,,SKC,0.19,VWS V14.01,2013-05-30 07:25:00,
2013-05-30 03:26:00,64.0,62.8,29.99,WNW,291,0.0,0.0,96,0.00,,SKC,0.19,VWS V14.01,2013-05-30 07:26:00,
2013-05-30 03:27:00,64.0,62.8,29.99,WNW,289,0.0,0.0,96,0.00,,SKC,0.19,VWS V14.01,2013-05-30 07:27:00,
2013-05-30 03:29:00,64.0,62.8,29.99,WNW,291,0.0,0.0,96,0.00,,SKC,0.19,VWS V14.01,2013-05-30 07:29:00,
2013-05-30 03:30:00,64.0,62.8,29.99,WNW,292,0.0,0.0,96,0.00,,SKC,0.19,VWS V14.01,2013-05-30 07:30:00,
2013-05-30 03:31:00,64.0,62.8,29.99,WNW,289,0.0,0.0,96,0.00,,SKC,0.19,VWS V14.01,2013-05-30 07:31:00,
2013-05-30 03:32:00,64.0,62.8,29.99,WNW,291,0.0,0.0,96,0.00,,SKC,0.19,VWS V14.01,2013-05-30 07:32:00,
2013-05-30 03:35:00,64.0,62.8,29.99,WNW,287,0.0,0.0,96,0.00,,SKC,0.19,VWS V14.01,2013-05-30 07:35:00,
2013-05-30 03:36:00,63.9,62.7,29.99,WNW,287,0.0,0.0,96,0.00,,SKC,0.19,VWS V14.01,2013-05-30 07:36:00,
2013-05-30 03:37:00,63.9,62.7,29.99,WNW,285,0.0,0.0,96,0.00,,SKC,0.19,VWS V14.01,2013-05-30 07:37:00,
2013-05-30 03:38:00,63.9,62.7,29.99,WNW,284,0.0,0.0,96,0.00,,SKC,0.19,VWS V14.01,2013-05-30 07:38:00,
2013-05-30 03:40:00,63.9,62.7,29.99,WNW,285,0.0,0.0,96,0.00,,SKC,0.19,VWS V14.01,2013-05-30 07:40:00,
2013-05-30 03:41:00,63.9,62.7,29.99,WNW,285,0.0,0.0,96,0.00,,SKC,0.19,VWS V14.01,2013-05-30 07:41:00,
2013-05-30 03:43:00,63.9,62.7,29.99,WNW,287,0.0,0.0,96,0.00,,SKC,0.19,VWS V14.01,2013-05-30 07:43:00,
2013-05-30 03:45:00,63.9,62.7,29.99,WNW,292,0.0,0.0,96,0.00,,SKC,0.19,VWS V14.01,2013-05-30 07:45:00,
2013-05-30 03:46:00,63.9,62.7,29.99,WNW,284,0.0,0.0,96,0.00,,SKC,0.19,VWS V14.01,2013-05-30 07:46:00,
2013-05-30 03:49:00,63.9,62.7,29.99,WNW,285,0.0,0.0,96,0.00,,SKC,0.19,VWS V14.01,2013-05-30 07:49:00,
2013-05-30 03:50:00,63.9,62.7,29.99,WNW,285,0.0,0.0,96,0.00,,SKC,0.19,VWS V14.01,2013-05-30 07:50:00,
2013-05-30 03:51:00,63.9,62.7,29.99,WNW,289,0.0,0.0,96,0.00,,SKC,0.19,VWS V14.01,2013-05-30 07:51:00,
2013-05-30 03:52:00,63.9,62.7,29.99,WNW,291,0.0,0.0,96,0.00,,SKC,0.19,VWS V14.01,2013-05-30 07:52:00,
2013-05-30 03:54:00,63.9,62.7,29.99,WNW,291,0.0,0.0,96,0.00,,SKC,0.19,VWS V14.01,2013-05-30 07:54:00,
2013-05-30 03:55:00,64.3,63.1,29.99,WNW,288,0.0,0.0,96,0.00,,SKC,0.19,VWS V14.01,2013-05-30 07:55:00,
2013-05-30 03:56:00,63.9,62.7,29.99,WNW,291,0.0,0.0,96,0.00,,SKC,0.19,VWS V14.01,2013-05-30 07:56:00,
2013-05-30 03:57:00,63.9,62.7,29.99,WNW,292,0.0,0.0,96,0.00,,SKC,0.19,VWS V14.01,2013-05-30 07:57:00,
2013-05-30 03:59:00,63.9,62.7,30.00,WNW,291,0.0,0.0,96,0.00,,SKC,0.19,VWS V14.01,2013-05-30 07:59:00,
2013-05-30 04:00:00,64.3,63.1,29.99,WNW,291,0.0,0.0,96,0.00,,SKC,0.19,VWS V14.01,2013-05-30 08:00:00,
2013-05-30 04:01:00,63.9,62.7,30.00,WNW,292,0.0,0.0,96,0.00,,SKC,0.19,VWS V14.01,2013-05-30 08:01:00,
2013-05-30 04:02:00,63.9,62.7,30.00,WNW,291,0.0,0.0,96,0.00,,SKC,0.19,VWS V14.01,2013-05-30 08:02:00,
2013-05-30 04:04:00,63.9,62.7,30.00,WNW,284,0.0,0.0,96,0.00,,SKC,0.19,VWS V14.01,2013-05-30 08:04:00,
2013-05-30 04:05:00,64.3,63.1,29.99,WNW,291,0.0,0.0,96,0.00,,SKC,0.19,VWS V14.01,2013-05-30 08:05:00,
2013-05-30 04:06:00,63.9,62.7,30.00,WNW,289,0.0,0.0,96,0.00,,SKC,0.19,VWS V14.01,2013-05-30 08:06:00,
2013-05-30 04:07:00,63.9,62.7,30.00,WNW,284,0.0,0.0,96,0.00,,SKC,0.19,VWS V14.01,2013-05-30 08:07:00,
2013-05-30 04:09:00,63.9,62.7,30.00,WNW,289,0.0,0.0,96,0.00,,SKC,0.19,VWS V14.01,2013-05-30 08:09:00,
2013-05-30 04:10:00,63.9,62.7,30.00,WNW,291,0.0,0.0,96,0.00,,SKC,0.19,VWS V14.01,2013-05-30 08:10:00,
2013-05-30 04:12:00,63.9,62.7,30.00,WNW,289,0.0,0.0,96,0.00,,SKC,0.19,VWS V14.01,2013-05-30 08:12:00,
2013-05-30 04:14:00,63.9,62.7,30.00,WNW,291,0.0,0.0,96,0.00,,SKC,0.19,VWS V14.01,2013-05-30 08:14:00,
2013-05-30 04:15:00,64.2,63.0,29.99,WNW,291,0.0,0.0,96,0.00,,SKC,0.19,VWS V14.01,2013-05-30 08:15:00,
2013-05-30 04:16:00,63.9,62.7,30.00,WNW,289,0.0,0.0,96,0.00,,SKC,0.19,VWS V14.01,2013-05-30 08:16:00,
2013-05-30 04:17:00,63.7,62.5,30.00,WNW,288,0.0,0.0,96,0.00,,SKC,0.19,VWS V14.01,2013-05-30 08:17:00,
2013-05-30 04:18:00,63.7,62.5,30.00,WNW,289,0.0,0.0,96,0.00,,SKC,0.19,VWS V14.01,2013-05-30 08:18:00,
2013-05-30 04:20:00,63.7,62.5,30.00,WNW,284,0.0,0.0,96,0.00,,SKC,0.19,VWS V14.01,2013-05-30 08:20:00,
2013-05-30 04:22:00,63.7,62.5,30.00,WNW,291,0.0,0.0,96,0.00,,SKC,0.19,VWS V14.01,2013-05-30 08:22:00,
2013-05-30 04:23:00,63.7,62.5,30.00,WNW,284,0.0,0.0,96,0.00,,SKC,0.19,VWS V14.01,2013-05-30 08:23:00,
2013-05-30 04:24:00,63.7,62.5,30.00,WNW,284,0.0,0.0,96,0.00,,SKC,0.19,VWS V14.01,2013-05-30 08:24:00,
2013-05-30 04:25:00,63.7,62.5,30.00,WNW,289,0.0,0.0,96,0.00,,SKC,0.19,VWS V14.01,2013-05-30 08:25:00,
2013-05-30 04:28:00,63.7,62.5,30.00,WNW,291,0.0,0.0,96,0.00,,SKC,0.19,VWS V14.01,2013-05-30 08:28:00,
2013-05-30 04:29:00,63.7,62.5,30.00,WNW,288,0.0,0.0,96,0.00,,SKC,0.19,VWS V14.01,2013-05-30 08:29:00,
2013-05-30 04:30:00,63.7,62.5,30.00,WNW,284,0.0,0.0,96,0.00,,SKC,0.19,VWS V14.01,2013-05-30 08:30:00,
2013-05-30 04:33:00,63.7,62.5,30.00,WNW,291,0.0,0.0,96,0.00,,SKC,0.19,VWS V14.01,2013-05-30 08:33:00,
2013-05-30 04:34:00,63.7,62.5,30.00,WNW,285,0.0,0.0,96,0.00,,SKC,0.19,VWS V14.01,2013-05-30 08:34:00,
2013-05-30 04:35:00,63.5,62.3,30.00,WNW,282,0.0,0.0,96,0.00,,SKC,0.19,VWS V14.01,2013-05-30 08:35:00,
2013-05-30 04:36:00,63.5,62.3,30.00,WNW,285,0.0,0.0,96,0.00,,SKC,0.19,VWS V14.01,2013-05-30 08:36:00,
2013-05-30 04:38:00,63.5,62.3,30.00,WNW,288,0.0,0.0,96,0.00,,SKC,0.19,VWS V14.01,2013-05-30 08:38:00,
2013-05-30 04:39:00,63.5,62.3,30.00,WNW,291,0.0,0.0,96,0.00,,SKC,0.19,VWS V14.01,2013-05-30 08:39:00,
2013-05-30 04:40:00,63.5,62.3,30.00,WNW,285,0.0,0.0,96,0.00,,SKC,0.19,VWS V14.01,2013-05-30 08:40:00,
2013-05-30 04:41:00,63.5,62.3,30.00,WNW,285,0.0,0.0,96,0.00,,SKC,0.19,VWS V14.01,2013-05-30 08:41:00,
2013-05-30 04:44:00,63.5,62.3,30.00,WNW,285,0.0,0.0,96,0.00,,SKC,0.19,VWS V14.01,2013-05-30 08:44:00,
2013-05-30 04:45:00,63.5,62.3,30.00,WNW,284,0.0,0.0,96,0.00,,SKC,0.19,VWS V14.01,2013-05-30 08:45:00,
2013-05-30 04:46:00,63.5,62.3,30.00,WNW,282,0.0,0.0,96,0.00,,SKC,0.19,VWS V14.01,2013-05-30 08:46:00,
2013-05-30 04:49:00,63.5,62.3,30.00,WNW,289,0.0,0.0,96,0.00,,SKC,0.19,VWS V14.01,2013-05-30 08:49:00,
2013-05-30 04:50:00,63.5,62.3,30.00,WNW,289,0.0,0.0,96,0.00,,SKC,0.19,VWS V14.01,2013-05-30 08:50:00,
2013-05-30 04:51:00,63.4,62.2,30.00,WNW,282,0.0,0.0,96,0.00,,SKC,0.19,VWS V14.01,2013-05-30 08:51:00,
2013-05-30 04:54:00,63.4,62.2,30.00,WNW,284,0.0,0.0,96,0.00,,SKC,0.19,VWS V14.01,2013-05-30 08:54:00,
2013-05-30 04:55:00,63.4,62.2,30.00,WNW,288,0.0,0.0,96,0.00,,SKC,0.19,VWS V14.01,2013-05-30 08:55:00,
2013-05-30 04:56:00,63.4,62.2,30.00,WNW,282,0.0,0.0,96,0.00,,SKC,0.19,VWS V14.01,2013-05-30 08:56:00,
2013-05-30 04:59:00,63.4,62.2,30.00,West,281,0.0,0.0,96,0.00,,SKC,0.19,VWS V14.01,2013-05-30 08:59:00,
2013-05-30 05:00:00,63.4,62.2,30.01,WNW,288,0.0,0.0,96,0.00,,SKC,0.19,VWS V14.01,2013-05-30 09:00:00,
2013-05-30 05:01:00,63.4,62.2,30.01,WNW,282,0.0,0.0,96,0.00,,SKC,0.19,VWS V14.01,2013-05-30 09:01:00,
2013-05-30 05:04:00,63.4,62.2,30.01,WNW,282,0.0,0.0,96,0.00,,SKC,0.19,VWS V14.01,2013-05-30 09:04:00,
2013-05-30 05:05:00,63.4,62.2,30.01,WNW,284,0.0,0.0,96,0.00,,SKC,0.19,VWS V14.01,2013-05-30 09:05:00,
2013-05-30 05:06:00,63.2,62.0,30.01,West,281,0.0,0.0,96,0.00,,SKC,0.19,VWS V14.01,2013-05-30 09:06:00,
2013-05-30 05:07:00,63.2,62.0,30.01,WNW,282,0.0,0.0,96,0.00,,SKC,0.19,VWS V14.01,2013-05-30 09:07:00,
2013-05-30 05:10:00,63.2,62.0,30.01,WNW,288,0.0,0.0,96,0.00,,SKC,0.19,VWS V14.01,2013-05-30 09:10:00,
2013-05-30 05:12:00,63.2,62.0,30.01,WNW,284,0.0,0.0,96,0.00,,SKC,0.19,VWS V14.01,2013-05-30 09:12:00,
2013-05-30 05:15:00,63.2,62.0,30.01,West,281,0.0,0.0,96,0.00,,SKC,0.19,VWS V14.01,2013-05-30 09:15:00,
2013-05-30 05:16:00,63.2,62.0,30.01,WNW,282,0.0,0.0,96,0.00,,SKC,0.19,VWS V14.01,2013-05-30 09:16:00,
2013-05-30 05:17:00,63.2,62.0,30.01,WNW,288,0.0,0.0,96,0.00,,SKC,0.19,VWS V14.01,2013-05-30 09:17:00,
2013-05-30 05:20:00,63.7,62.5,30.00,WNW,285,0.0,0.0,96,0.00,,SKC,0.19,VWS V14.01,2013-05-30 09:20:00,
2013-05-30 05:21:00,63.1,61.9,30.01,WNW,288,0.0,0.0,96,0.00,,SKC,0.19,VWS V14.01,2013-05-30 09:21:00,
2013-05-30 05:22:00,63.1,61.9,30.01,WNW,289,0.0,0.0,96,0.00,,SKC,0.19,VWS V14.01,2013-05-30 09:22:00,
2013-05-30 05:25:00,63.7,62.5,30.00,WNW,288,0.0,0.0,96,0.00,,SKC,0.19,VWS V14.01,2013-05-30 09:25:00,
2013-05-30 05:26:00,63.1,61.9,30.01,WNW,284,0.0,0.0,96,0.00,,SKC,0.19,VWS V14.01,2013-05-30 09:26:00,
2013-05-30 05:27:00,63.1,61.9,30.01,WNW,284,0.0,0.0,96,0.00,,SKC,0.19,VWS V14.01,2013-05-30 09:27:00,
2013-05-30 05:28:00,63.1,61.9,30.01,WNW,288,0.0,0.0,96,0.00,,SKC,0.19,VWS V14.01,2013-05-30 09:28:00,
2013-05-30 05:30:00,63.7,62.5,30.00,WNW,285,0.0,0.0,96,0.00,,SKC,0.19,VWS V14.01,2013-05-30 09:30:00,
2013-05-30 05:31:00,63.1,61.9,30.01,WNW,294,0.0,0.0,96,0.00,,SKC,0.19,VWS V14.01,2013-05-30 09:31:00,
2013-05-30 05:32:00,63.1,61.9,30.01,WNW,294,0.0,0.0,96,0.00,,SKC,0.19,VWS V14.01,2013-05-30 09:32:00,
2013-05-30 05:33:00,63.1,61.9,30.01,WNW,292,0.0,0.0,96,0.00,,SKC,0.19,VWS V14.01,2013-05-30 09:33:00,
2013-05-30 05:35:00,63.5,62.3,30.00,WNW,288,0.0,0.0,96,0.00,,SKC,0.19,VWS V14.01,2013-05-30 09:35:00,
2013-05-30 05:36:00,63.1,61.9,30.01,WNW,284,0.0,0.0,96,0.00,,SKC,0.19,VWS V14.01,2013-05-30 09:36:00,
2013-05-30 05:37:00,63.1,61.9,30.01,WNW,285,0.0,0.0,96,0.00,,SKC,0.19,VWS V14.01,2013-05-30 09:37:00,
2013-05-30 05:38:00,63.1,61.9,30.01,WNW,288,0.0,0.0,96,0.00,,SKC,0.19,VWS V14.01,2013-05-30 09:38:00,
2013-05-30 05:40:00,63.5,62.3,30.00,WNW,285,0.0,0.0,96,0.00,,SKC,0.19,VWS V14.01,2013-05-30 09:40:00,
2013-05-30 05:41:00,63.1,61.9,30.01,WNW,284,0.0,0.0,96,0.00,,SKC,0.19,VWS V14.01,2013-05-30 09:41:00,
2013-05-30 05:43:00,63.1,61.9,30.01,WNW,289,0.0,0.0,96,0.00,,SKC,0.19,VWS V14.01,2013-05-30 09:43:00,
2013-05-30 05:44:00,63.1,61.9,30.01,WNW,289,0.0,0.0,96,0.00,,SKC,0.19,VWS V14.01,2013-05-30 09:44:00,
2013-05-30 05:45:00,63.5,62.3,30.00,WNW,284,0.0,0.0,96,0.00,,SKC,0.19,VWS V14.01,2013-05-30 09:45:00,
2013-05-30 05:46:00,63.1,61.9,30.01,WNW,282,0.0,0.0,96,0.00,,SKC,0.19,VWS V14.01,2013-05-30 09:46:00,
2013-05-30 05:48:00,63.1,61.9,30.01,WNW,284,0.0,0.0,96,0.00,,SKC,0.19,VWS V14.01,2013-05-30 09:48:00,
2013-05-30 05:49:00,63.1,61.9,30.01,WNW,282,0.0,0.0,96,0.00,,SKC,0.19,VWS V14.01,2013-05-30 09:49:00,
2013-05-30 05:50:00,63.5,62.3,30.00,WNW,289,0.0,0.0,96,0.00,,SKC,0.19,VWS V14.01,2013-05-30 09:50:00,
2013-05-30 05:52:00,63.1,61.9,30.01,WNW,288,0.0,0.0,96,0.00,,SKC,0.19,VWS V14.01,2013-05-30 09:52:00,
2013-05-30 05:53:00,63.1,61.9,30.01,WNW,287,0.0,0.0,96,0.00,,SKC,0.19,VWS V14.01,2013-05-30 09:53:00,
2013-05-30 05:54:00,63.1,61.9,30.01,West,280,0.0,0.0,96,0.00,,SKC,0.19,VWS V14.01,2013-05-30 09:54:00,
2013-05-30 05:55:00,63.1,61.9,30.01,WNW,287,0.0,0.0,96,0.00,,SKC,0.19,VWS V14.01,2013-05-30 09:55:00,
2013-05-30 05:57:00,63.1,61.9,30.01,WNW,284,0.0,0.0,96,0.00,,SKC,0.19,VWS V14.01,2013-05-30 09:57:00,
2013-05-30 05:58:00,63.1,61.9,30.01,WNW,282,0.0,0.0,96,0.00,,SKC,0.19,VWS V14.01,2013-05-30 09:58:00,
2013-05-30 05:59:00,63.1,61.9,30.01,WNW,284,0.0,0.0,96,0.00,,SKC,0.19,VWS V14.01,2013-05-30 09:59:00,
2013-05-30 06:00:00,63.1,61.9,30.01,WNW,285,0.0,0.0,96,0.00,,SKC,0.19,VWS V14.01,2013-05-30 10:00:00,
2013-05-30 06:02:00,63.2,62.0,30.01,WNW,288,0.0,0.0,96,0.00,,SKC,0.19,VWS V14.01,2013-05-30 10:02:00,
2013-05-30 06:03:00,63.2,62.0,30.01,WNW,285,0.0,0.0,96,0.00,,SKC,0.19,VWS V14.01,2013-05-30 10:03:00,
2013-05-30 06:04:00,63.2,62.0,30.01,WNW,289,0.0,0.0,96,0.00,,SKC,0.19,VWS V14.01,2013-05-30 10:04:00,
2013-05-30 06:05:00,63.2,62.0,30.01,WNW,289,0.0,0.0,96,0.00,,SKC,0.19,VWS V14.01,2013-05-30 10:05:00,
2013-05-30 06:07:00,63.2,62.0,30.01,WNW,284,0.0,0.0,96,0.00,,SKC,0.19,VWS V14.01,2013-05-30 10:07:00,
2013-05-30 06:09:00,63.2,62.0,30.01,WNW,284,0.0,0.0,96,0.00,,SKC,0.19,VWS V14.01,2013-05-30 10:09:00,
2013-05-30 06:10:00,63.2,62.0,30.01,WNW,289,0.0,0.0,96,0.00,,SKC,0.19,VWS V14.01,2013-05-30 10:10:00,
2013-05-30 06:11:00,63.2,62.0,30.01,WNW,288,0.0,0.0,96,0.00,,SKC,0.19,VWS V14.01,2013-05-30 10:11:00,
2013-05-30 06:13:00,63.2,62.0,30.01,WNW,289,0.0,0.0,96,0.00,,SKC,0.19,VWS V14.01,2013-05-30 10:13:00,
2013-05-30 06:14:00,63.2,62.0,30.02,WNW,289,0.0,0.0,96,0.00,,SKC,0.19,VWS V14.01,2013-05-30 10:14:00,
2013-05-30 06:15:00,63.2,62.0,30.01,WNW,287,0.0,0.0,96,0.00,,SKC,0.19,VWS V14.01,2013-05-30 10:15:00,
2013-05-30 06:16:00,63.2,62.0,30.02,WNW,284,0.0,0.0,96,0.00,,SKC,0.19,VWS V14.01,2013-05-30 10:16:00,
2013-05-30 06:18:00,63.4,62.2,30.02,WNW,284,0.0,0.0,96,0.00,,SKC,0.19,VWS V14.01,2013-05-30 10:18:00,
2013-05-30 06:19:00,63.4,62.2,30.02,WNW,289,0.0,0.0,96,0.00,,SKC,0.19,VWS V14.01,2013-05-30 10:19:00,
2013-05-30 06:20:00,63.4,62.2,30.02,WNW,284,0.0,0.0,96,0.00,,SKC,0.19,VWS V14.01,2013-05-30 10:20:00,
2013-05-30 06:22:00,63.4,62.2,30.02,WNW,282,0.0,0.0,96,0.00,,SKC,0.19,VWS V14.01,2013-05-30 10:22:00,
2013-05-30 06:23:00,63.4,62.2,30.02,WNW,282,0.0,0.0,96,0.00,,SKC,0.19,VWS V14.01,2013-05-30 10:23:00,
2013-05-30 06:25:00,63.4,62.2,30.02,WNW,284,0.0,0.0,96,0.00,,SKC,0.19,VWS V14.01,2013-05-30 10:25:00,
2013-05-30 06:27:00,63.5,62.3,30.02,WNW,284,0.0,0.0,96,0.00,,SKC,0.19,VWS V14.01,2013-05-30 10:27:00,
2013-05-30 06:28:00,63.5,62.3,30.02,WNW,282,0.0,0.0,96,0.00,,SKC,0.19,VWS V14.01,2013-05-30 10:28:00,
2013-05-30 06:30:00,63.5,62.3,30.02,WNW,289,0.0,0.0,96,0.00,,SKC,0.19,VWS V14.01,2013-05-30 10:30:00,
2013-05-30 06:33:00,63.7,62.5,30.02,WNW,291,0.0,0.0,96,0.00,,SKC,0.19,VWS V14.01,2013-05-30 10:33:00,
2013-05-30 06:34:00,63.7,62.5,30.02,WNW,282,0.0,0.0,96,0.00,,SKC,0.19,VWS V14.01,2013-05-30 10:34:00,
2013-05-30 06:35:00,63.7,62.5,30.02,WNW,291,0.0,0.0,96,0.00,,SKC,0.19,VWS V14.01,2013-05-30 10:35:00,
2013-05-30 06:38:00,63.9,62.7,30.02,WNW,285,0.0,0.0,96,0.00,,SKC,0.19,VWS V14.01,2013-05-30 10:38:00,
2013-05-30 06:39:00,63.9,62.7,30.02,WNW,285,0.0,0.0,96,0.00,,SKC,0.19,VWS V14.01,2013-05-30 10:39:00,
2013-05-30 06:40:00,63.9,62.7,30.02,WNW,291,0.0,0.0,96,0.00,,SKC,0.19,VWS V14.01,2013-05-30 10:40:00,
2013-05-30 06:41:00,63.9,62.7,30.02,WNW,291,0.0,0.0,96,0.00,,SKC,0.19,VWS V14.01,2013-05-30 10:41:00,
2013-05-30 06:43:00,64.0,62.8,30.02,WNW,284,0.0,0.0,96,0.00,,SKC,0.19,VWS V14.01,2013-05-30 10:43:00,
2013-05-30 06:44:00,64.0,62.8,30.02,WNW,284,0.0,0.0,96,0.00,,SKC,0.19,VWS V14.01,2013-05-30 10:44:00,
2013-05-30 06:45:00,63.1,61.9,30.01,WNW,289,0.0,0.0,96,0.00,,SKC,0.19,VWS V14.01,2013-05-30 10:45:00,
2013-05-30 06:46:00,64.0,62.8,30.02,WNW,289,0.0,0.0,96,0.00,,SKC,0.19,VWS V14.01,2013-05-30 10:46:00,
2013-05-30 06:48:00,64.0,62.8,30.02,WNW,284,0.0,0.0,96,0.00,,SKC,0.19,VWS V14.01,2013-05-30 10:48:00,
2013-05-30 06:49:00,64.0,62.8,30.02,WNW,284,0.0,0.0,96,0.00,,SKC,0.19,VWS V14.01,2013-05-30 10:49:00,
2013-05-30 06:50:00,63.1,61.9,30.01,WNW,289,0.0,0.0,96,0.00,,SKC,0.19,VWS V14.01,2013-05-30 10:50:00,
2013-05-30 06:51:00,64.2,63.0,30.02,WNW,288,0.0,0.0,96,0.00,,SKC,0.19,VWS V14.01,2013-05-30 10:51:00,
2013-05-30 06:54:00,64.2,63.0,30.02,WNW,284,0.0,0.0,96,0.00,,SKC,0.19,VWS V14.01,2013-05-30 10:54:00,
2013-05-30 06:55:00,64.2,63.0,30.02,WNW,284,0.0,0.0,96,0.00,,SKC,0.19,VWS V14.01,2013-05-30 10:55:00,
2013-05-30 06:56:00,64.3,63.1,30.02,WNW,291,2.0,2.0,96,0.00,,SKC,0.19,VWS V14.01,2013-05-30 10:56:00,
2013-05-30 06:57:00,64.3,63.1,30.02,WNW,291,0.0,2.0,96,0.00,,SKC,0.19,VWS V14.01,2013-05-30 10:57:00,
2013-05-30 06:59:00,64.3,63.1,30.02,WNW,285,0.0,2.0,96,0.00,,SKC,0.19,VWS V14.01,2013-05-30 10:59:00,
2013-05-30 07:00:00,64.3,63.1,30.02,WNW,285,0.0,0.0,96,0.00,,SKC,0.19,VWS V14.01,2013-05-30 11:00:00,
2013-05-30 07:02:00,64.5,63.3,30.02,WNW,285,0.0,0.0,96,0.00,,SKC,0.19,VWS V14.01,2013-05-30 11:02:00,
2013-05-30 07:05:00,64.5,63.3,30.02,WNW,291,0.0,0.0,96,0.00,,SKC,0.19,VWS V14.01,2013-05-30 11:05:00,
2013-05-30 07:06:00,64.5,63.3,30.02,WNW,292,0.0,0.0,96,0.00,,SKC,0.19,VWS V14.01,2013-05-30 11:06:00,
2013-05-30 07:07:00,64.7,63.5,30.02,WNW,292,0.0,0.0,96,0.00,,SKC,0.19,VWS V14.01,2013-05-30 11:07:00,
2013-05-30 07:08:00,64.7,63.5,30.02,WNW,289,0.0,0.0,96,0.00,,SKC,0.19,VWS V14.01,2013-05-30 11:08:00,
2013-05-30 07:10:00,64.7,63.5,30.02,WNW,285,0.0,0.0,96,0.00,,SKC,0.19,VWS V14.01,2013-05-30 11:10:00,
2013-05-30 07:11:00,64.8,63.6,30.02,WNW,291,0.0,0.0,96,0.00,,SKC,0.19,VWS V14.01,2013-05-30 11:11:00,
2013-05-30 07:12:00,64.8,63.6,30.02,WNW,292,0.0,0.0,96,0.00,,SKC,0.19,VWS V14.01,2013-05-30 11:12:00,
2013-05-30 07:13:00,64.8,63.6,30.02,WNW,291,0.0,0.0,96,0.00,,SKC,0.19,VWS V14.01,2013-05-30 11:13:00,
2013-05-30 07:15:00,65.0,63.8,30.03,WNW,295,0.0,0.0,96,0.00,,SKC,0.19,VWS V14.01,2013-05-30 11:15:00,
2013-05-30 07:16:00,65.2,64.0,30.03,WNW,298,0.0,0.0,96,0.00,,SKC,0.19,VWS V14.01,2013-05-30 11:16:00,
2013-05-30 07:17:00,65.2,64.0,30.03,WNW,292,0.0,0.0,96,0.00,,SKC,0.19,VWS V14.01,2013-05-30 11:17:00,
2013-05-30 07:18:00,65.2,64.0,30.03,WNW,291,0.0,0.0,96,0.00,,SKC,0.19,VWS V14.01,2013-05-30 11:18:00,
2013-05-30 07:20:00,63.4,62.2,30.02,WNW,284,0.0,0.0,96,0.00,,SKC,0.19,VWS V14.01,2013-05-30 11:20:00,
2013-05-30 07:21:00,65.5,64.3,30.03,WNW,296,0.0,0.0,96,0.00,,SKC,0.19,VWS V14.01,2013-05-30 11:21:00,
2013-05-30 07:22:00,65.5,64.3,30.03,WNW,294,0.0,0.0,96,0.00,,SKC,0.19,VWS V14.01,2013-05-30 11:22:00,
2013-05-30 07:23:00,65.6,64.4,30.03,WNW,296,0.0,0.0,96,0.00,,SKC,0.19,VWS V14.01,2013-05-30 11:23:00,
2013-05-30 07:25:00,63.4,62.2,30.02,WNW,284,0.0,0.0,96,0.00,,SKC,0.19,VWS V14.01,2013-05-30 11:25:00,
2013-05-30 07:26:00,65.6,64.4,30.03,WNW,295,0.0,0.0,96,0.00,,SKC,0.19,VWS V14.01,2013-05-30 11:26:00,
2013-05-30 07:27:00,65.6,64.4,30.03,WNW,296,0.0,0.0,96,0.00,,SKC,0.19,VWS V14.01,2013-05-30 11:27:00,
2013-05-30 07:28:00,65.8,64.6,30.03,WNW,296,0.0,0.0,96,0.00,,SKC,0.19,VWS V14.01,2013-05-30 11:28:00,
2013-05-30 07:29:00,66.0,64.8,30.02,WNW,291,0.0,0.0,96,0.00,,SKC,0.19,VWS V14.01,2013-05-30 11:29:00,
2013-05-30 07:30:00,63.5,62.3,30.02,WNW,289,0.0,0.0,96,0.00,,SKC,0.19,VWS V14.01,2013-05-30 11:30:00,
2013-05-30 07:31:00,66.1,64.9,30.02,WNW,294,0.0,0.0,96,0.00,,SKC,0.19,VWS V14.01,2013-05-30 11:31:00,
2013-05-30 07:32:00,66.1,64.9,30.02,WNW,296,0.0,0.0,96,0.00,,SKC,0.19,VWS V14.01,2013-05-30 11:32:00,
2013-05-30 07:33:00,66.1,64.9,30.02,WNW,292,0.0,0.0,96,0.00,,SKC,0.19,VWS V14.01,2013-05-30 11:33:00,
2013-05-30 07:35:00,66.1,64.9,30.02,WNW,296,0.0,0.0,96,0.00,,SKC,0.19,VWS V14.01,2013-05-30 11:35:00,
2013-05-30 07:36:00,66.3,65.1,30.02,WNW,298,0.0,0.0,96,0.00,,SKC,0.19,VWS V14.01,2013-05-30 11:36:00,
2013-05-30 07:37:00,66.3,65.1,30.02,WNW,291,0.0,0.0,96,0.00,,SKC,0.19,VWS V14.01,2013-05-30 11:37:00,
2013-05-30 07:38:00,66.3,65.1,30.02,WNW,291,0.0,0.0,96,0.00,,SKC,0.19,VWS V14.01,2013-05-30 11:38:00,
2013-05-30 07:40:00,66.3,65.1,30.02,WNW,296,0.0,0.0,96,0.00,,SKC,0.19,VWS V14.01,2013-05-30 11:40:00,
2013-05-30 07:41:00,66.3,65.1,30.02,WNW,292,0.0,0.0,96,0.00,,SKC,0.19,VWS V14.01,2013-05-30 11:41:00,
2013-05-30 07:42:00,66.3,65.1,30.02,WNW,291,0.0,0.0,96,0.00,,SKC,0.19,VWS V14.01,2013-05-30 11:42:00,
2013-05-30 07:44:00,66.3,65.1,30.02,WNW,291,0.0,0.0,96,0.00,,SKC,0.19,VWS V14.01,2013-05-30 11:44:00,
2013-05-30 07:45:00,66.4,65.2,30.03,WNW,296,0.0,0.0,96,0.00,,SKC,0.19,VWS V14.01,2013-05-30 11:45:00,
2013-05-30 07:47:00,66.6,65.4,30.03,WNW,296,0.0,0.0,96,0.00,,SKC,0.19,VWS V14.01,2013-05-30 11:47:00,
2013-05-30 07:48:00,66.6,65.4,30.03,WNW,291,0.0,0.0,96,0.00,,SKC,0.19,VWS V14.01,2013-05-30 11:48:00,
2013-05-30 07:49:00,66.6,65.4,30.03,WNW,296,0.0,0.0,96,0.00,,SKC,0.19,VWS V14.01,2013-05-30 11:49:00,
2013-05-30 07:50:00,64.0,62.8,30.02,WNW,284,0.0,0.0,96,0.00,,SKC,0.19,VWS V14.01,2013-05-30 11:50:00,
2013-05-30 07:51:00,66.8,65.6,30.03,WNW,291,0.0,0.0,96,0.00,,SKC,0.19,VWS V14.01,2013-05-30 11:51:00,
2013-05-30 07:52:00,66.8,65.6,30.03,WNW,292,2.0,2.0,96,0.00,,SKC,0.19,VWS V14.01,2013-05-30 11:52:00,
2013-05-30 07:53:00,66.9,65.7,30.03,WNW,289,0.0,2.0,96,0.00,,SKC,0.19,VWS V14.01,2013-05-30 11:53:00,
2013-05-30 07:54:00,66.9,65.7,30.03,WNW,296,0.0,2.0,96,0.00,,SKC,0.19,VWS V14.01,2013-05-30 11:54:00,
2013-05-30 07:55:00,64.2,63.0,30.02,WNW,289,0.0,0.0,96,0.00,,SKC,0.19,VWS V14.01,2013-05-30 11:55:00,
2013-05-30 07:57:00,67.1,65.9,30.03,WNW,296,0.0,0.0,96,0.00,,SKC,0.19,VWS V14.01,2013-05-30 11:57:00,
2013-05-30 07:58:00,67.3,66.1,30.03,WNW,296,0.0,0.0,96,0.00,,SKC,0.19,VWS V14.01,2013-05-30 11:58:00,
2013-05-30 07:59:00,67.3,66.1,30.03,WNW,296,0.0,0.0,96,0.00,,SKC,0.19,VWS V14.01,2013-05-30 11:59:00,
2013-05-30 08:00:00,67.4,66.2,30.03,WNW,291,0.0,0.0,96,0.00,,SKC,0.19,VWS V14.01,2013-05-30 12:00:00,
2013-05-30 08:02:00,67.6,66.4,30.03,WNW,291,0.0,0.0,96,0.00,,SKC,0.19,VWS V14.01,2013-05-30 12:02:00,
2013-05-30 08:03:00,67.6,66.4,30.03,WNW,291,0.0,0.0,96,0.00,,SKC,0.19,VWS V14.01,2013-05-30 12:03:00,
2013-05-30 08:04:00,67.6,66.4,30.03,WNW,295,0.0,0.0,96,0.00,,SKC,0.19,VWS V14.01,2013-05-30 12:04:00,
2013-05-30 08:05:00,67.6,66.1,30.03,WNW,296,0.0,0.0,95,0.00,,SKC,0.19,VWS V14.01,2013-05-30 12:05:00,
2013-05-30 08:07:00,67.8,66.3,30.03,WNW,296,0.0,0.0,95,0.00,,SKC,0.19,VWS V14.01,2013-05-30 12:07:00,
2013-05-30 08:08:00,67.9,66.4,30.03,WNW,296,0.0,0.0,95,0.00,,SKC,0.19,VWS V14.01,2013-05-30 12:08:00,
2013-05-30 08:10:00,67.9,66.4,30.03,WNW,296,0.0,0.0,95,0.00,,SKC,0.19,VWS V14.01,2013-05-30 12:10:00,
2013-05-30 08:13:00,68.3,66.8,30.03,WNW,295,0.0,0.0,95,0.00,,SKC,0.19,VWS V14.01,2013-05-30 12:13:00,
2013-05-30 08:14:00,68.3,66.8,30.03,WNW,295,0.0,0.0,95,0.00,,SKC,0.19,VWS V14.01,2013-05-30 12:14:00,
2013-05-30 08:15:00,68.4,66.6,30.03,WNW,295,0.0,0.0,94,0.00,,SKC,0.19,VWS V14.01,2013-05-30 12:15:00,
2013-05-30 08:17:00,68.6,66.8,30.03,WNW,294,0.0,0.0,94,0.00,,SKC,0.19,VWS V14.01,2013-05-30 12:17:00,
2013-05-30 08:18:00,68.6,66.8,30.03,WNW,291,0.0,0.0,94,0.00,,SKC,0.19,VWS V14.01,2013-05-30 12:18:00,
2013-05-30 08:20:00,68.8,67.0,30.03,WNW,291,0.0,0.0,94,0.00,,SKC,0.19,VWS V14.01,2013-05-30 12:20:00,
2013-05-30 08:21:00,68.9,67.1,30.03,WNW,289,0.0,0.0,94,0.00,,SKC,0.19,VWS V14.01,2013-05-30 12:21:00,
2013-05-30 08:23:00,69.1,67.0,30.03,WNW,291,0.0,0.0,93,0.00,,SKC,0.19,VWS V14.01,2013-05-30 12:23:00,
2013-05-30 08:25:00,69.3,67.2,30.03,WNW,285,0.0,0.0,93,0.00,,SKC,0.19,VWS V14.01,2013-05-30 12:25:00,
2013-05-30 08:26:00,69.4,67.0,30.03,WNW,291,0.0,0.0,92,0.00,,SKC,0.19,VWS V14.01,2013-05-30 12:26:00,
2013-05-30 08:28:00,69.6,67.2,30.03,WNW,291,0.0,0.0,92,0.00,,SKC,0.19,VWS V14.01,2013-05-30 12:28:00,
2013-05-30 08:29:00,69.8,67.4,30.03,WNW,288,0.0,0.0,92,0.00,,SKC,0.19,VWS V14.01,2013-05-30 12:29:00,
2013-05-30 08:30:00,69.8,67.4,30.03,WNW,289,0.0,0.0,92,0.00,,SKC,0.19,VWS V14.01,2013-05-30 12:30:00,
2013-05-30 08:32:00,70.3,67.6,30.03,WNW,289,0.0,0.0,91,0.00,,SKC,0.19,VWS V14.01,2013-05-30 12:32:00,
2013-05-30 08:33:00,70.3,67.6,30.03,WNW,289,0.0,0.0,91,0.00,,SKC,0.19,VWS V14.01,2013-05-30 12:33:00,
2013-05-30 08:34:00,70.3,67.6,30.03,WNW,287,0.0,0.0,91,0.00,,SKC,0.19,VWS V14.01,2013-05-30 12:34:00,
2013-05-30 08:35:00,70.3,67.2,30.03,WNW,289,0.0,0.0,90,0.00,,SKC,0.19,VWS V14.01,2013-05-30 12:35:00,
2013-05-30 08:38:00,70.6,67.5,30.03,WNW,288,0.0,0.0,90,0.00,,SKC,0.19,VWS V14.01,2013-05-30 12:38:00,
2013-05-30 08:40:00,70.9,67.8,30.03,WNW,287,0.0,0.0,90,0.00,,SKC,0.19,VWS V14.01,2013-05-30 12:40:00,
2013-05-30 08:41:00,70.9,67.8,30.03,WNW,285,0.0,0.0,90,0.00,,SKC,0.19,VWS V14.01,2013-05-30 12:41:00,
2013-05-30 08:42:00,70.9,67.8,30.03,WNW,287,0.0,0.0,90,0.00,,SKC,0.19,VWS V14.01,2013-05-30 12:42:00,
2013-05-30 08:43:00,71.1,67.4,30.03,WNW,285,0.0,0.0,88,0.00,,SKC,0.19,VWS V14.01,2013-05-30 12:43:00,
2013-05-30 08:45:00,71.3,67.6,30.04,WNW,285,0.0,0.0,88,0.00,,SKC,0.19,VWS V14.01,2013-05-30 12:45:00,
2013-05-30 08:46:00,71.5,67.1,30.04,WNW,285,0.0,0.0,86,0.00,,SKC,0.19,VWS V14.01,2013-05-30 12:46:00,
2013-05-30 08:47:00,71.5,67.1,30.04,WNW,287,0.0,0.0,86,0.00,,SKC,0.19,VWS V14.01,2013-05-30 12:47:00,
2013-05-30 08:48:00,71.5,67.1,30.04,WSW,239,0.0,0.0,86,0.00,,SKC,0.19,VWS V14.01,2013-05-30 12:48:00,
2013-05-30 08:50:00,66.6,65.4,30.03,WNW,292,0.0,0.0,96,0.00,,SKC,0.19,VWS V14.01,2013-05-30 12:50:00,
2013-05-30 08:51:00,71.8,67.1,30.04,WSW,239,0.0,0.0,85,0.00,,SKC,0.19,VWS V14.01,2013-05-30 12:51:00,
2013-05-30 08:52:00,72.0,67.2,30.04,WSW,240,0.0,0.0,85,0.00,,SKC,0.19,VWS V14.01,2013-05-30 12:52:00,
2013-05-30 08:53:00,72.1,67.0,30.04,WSW,240,0.0,0.0,84,0.00,,SKC,0.19,VWS V14.01,2013-05-30 12:53:00,
2013-05-30 08:54:00,72.1,67.0,30.04,WSW,240,0.0,0.0,84,0.00,,SKC,0.19,VWS V14.01,2013-05-30 12:54:00,
2013-05-30 08:55:00,66.9,65.7,30.03,WNW,291,0.0,2.0,96,0.00,,SKC,0.19,VWS V14.01,2013-05-30 12:55:00,
2013-05-30 08:56:00,72.5,67.4,30.04,WSW,240,0.0,0.0,84,0.00,,SKC,0.19,VWS V14.01,2013-05-30 12:56:00,
2013-05-30 08:57:00,72.7,67.6,30.04,WSW,240,0.0,0.0,84,0.00,,SKC,0.19,VWS V14.01,2013-05-30 12:57:00,
2013-05-30 08:58:00,72.8,67.7,30.04,WSW,239,0.0,0.0,84,0.00,,SKC,0.19,VWS V14.01,2013-05-30 12:58:00,
2013-05-30 08:59:00,72.8,67.3,30.04,WSW,237,0.0,0.0,83,0.00,,SKC,0.19,VWS V14.01,2013-05-30 12:59:00,
2013-05-30 09:00:00,67.4,66.2,30.03,WNW,292,0.0,0.0,96,0.00,,SKC,0.19,VWS V14.01,2013-05-30 13:00:00,
2013-05-30 09:01:00,72.8,67.3,30.04,WSW,243,0.0,0.0,83,0.00,,SKC,0.19,VWS V14.01,2013-05-30 13:01:00,
2013-05-30 09:03:00,73.0,66.5,30.04,WSW,248,0.0,1.0,80,0.00,,SKC,0.19,VWS V14.01,2013-05-30 13:03:00,
2013-05-30 09:04:00,73.0,66.5,30.04,WSW,251,0.0,1.0,80,0.00,,SKC,0.19,VWS V14.01,2013-05-30 13:04:00,
2013-05-30 09:05:00,67.6,66.1,30.03,WNW,296,0.0,0.0,95,0.00,,SKC,0.19,VWS V14.01,2013-05-30 13:05:00,
2013-05-30 09:06:00,73.5,66.2,30.04,WSW,246,0.0,0.0,78,0.00,,SKC,0.19,VWS V14.01,2013-05-30 13:06:00,
2013-05-30 09:09:00,74.0,66.7,30.04,WSW,248,0.0,0.0,78,0.00,,SKC,0.19,VWS V14.01,2013-05-30 13:09:00,
2013-05-30 09:10:00,74.2,66.9,30.04,WSW,247,0.0,0.0,78,0.00,,SKC,0.19,VWS V14.01,2013-05-30 13:10:00,
2013-05-30 09:11:00,74.4,67.1,30.04,SE,145,0.0,3.0,78,0.00,,SKC,0.19,VWS V14.01,2013-05-30 13:11:00,
2013-05-30 09:12:00,74.4,67.1,30.04,SSE,150,0.0,3.0,78,0.00,,SKC,0.19,VWS V14.01,2013-05-30 13:12:00,
2013-05-30 09:14:00,74.6,66.5,30.04,WSW,248,0.0,3.0,76,0.00,,SKC,0.19,VWS V14.01,2013-05-30 13:14:00,
2013-05-30 09:15:00,74.7,66.6,30.04,WSW,247,0.0,0.0,76,0.00,,SKC,0.19,VWS V14.01,2013-05-30 13:15:00,
2013-05-30 09:17:00,74.9,66.8,30.04,WSW,248,0.0,0.0,76,0.00,,SKC,0.19,VWS V14.01,2013-05-30 13:17:00,
2013-05-30 09:19:00,75.1,67.0,30.04,WSW,250,0.0,0.0,76,0.00,,SKC,0.19,VWS V14.01,2013-05-30 13:19:00,
2013-05-30 09:20:00,75.1,66.6,30.04,WSW,250,0.0,0.0,75,0.00,,SKC,0.19,VWS V14.01,2013-05-30 13:20:00,
2013-05-30 09:21:00,75.1,66.6,30.04,WSW,248,0.0,0.0,75,0.00,,SKC,0.19,VWS V14.01,2013-05-30 13:21:00,
2013-05-30 09:22:00,75.1,66.6,30.04,WSW,248,0.0,0.0,75,0.00,,SKC,0.19,VWS V14.01,2013-05-30 13:22:00,
2013-05-30 09:23:00,74.9,66.1,30.04,WSW,248,0.0,0.0,74,0.00,,SKC,0.19,VWS V14.01,2013-05-30 13:23:00,
2013-05-30 09:24:00,74.7,65.9,30.04,WSW,250,0.0,0.0,74,0.00,,SKC,0.19,VWS V14.01,2013-05-30 13:24:00,
2013-05-30 09:25:00,69.3,67.2,30.03,WNW,291,0.0,0.0,93,0.00,,SKC,0.19,VWS V14.01,2013-05-30 13:25:00,
2013-05-30 09:26:00,74.9,66.1,30.04,WSW,243,0.0,0.0,74,0.00,,SKC,0.19,VWS V14.01,2013-05-30 13:26:00,
2013-05-30 09:27:00,75.1,65.9,30.04,NNW,343,0.0,5.0,73,0.00,,SKC,0.19,VWS V14.01,2013-05-30 13:27:00,
2013-05-30 09:29:00,75.4,66.5,30.04,NNW,343,0.0,5.0,74,0.00,,SKC,0.19,VWS V14.01,2013-05-30 13:29:00,
2013-05-30 09:30:00,69.8,67.4,30.03,WNW,289,0.0,0.0,92,0.00,,SKC,0.19,VWS V14.01,2013-05-30 13:30:00,
2013-05-30 09:31:00,75.8,66.5,30.04,North,357,2.0,4.0,73,0.00,,SKC,0.19,VWS V14.01,2013-05-30 13:31:00,
2013-05-30 09:32:00,76.1,66.4,30.04,North,354,0.0,4.0,72,0.00,,SKC,0.19,VWS V14.01,2013-05-30 13:32:00,
2013-05-30 09:34:00,76.5,66.8,30.04,North,354,0.0,4.0,72,0.00,,SKC,0.19,VWS V14.01,2013-05-30 13:34:00,
2013-05-30 09:35:00,76.5,66.8,30.04,North,357,0.0,4.0,72,0.00,,SKC,0.19,VWS V14.01,2013-05-30 13:35:00,
2013-05-30 09:36:00,76.7,67.4,30.04,NNW,333,1.0,2.0,73,0.00,,SKC,0.19,VWS V14.01,2013-05-30 13:36:00,
2013-05-30 09:38:00,76.8,66.7,30.04,NNW,333,0.0,2.0,71,0.00,,SKC,0.19,VWS V14.01,2013-05-30 13:38:00,
2013-05-30 09:40:00,77.2,67.1,30.04,NNW,332,0.0,2.0,71,0.00,,SKC,0.19,VWS V14.01,2013-05-30 13:40:00,
2013-05-30 09:41:00,77.6,67.5,30.04,WNW,301,2.0,3.0,71,0.00,,SKC,0.19,VWS V14.01,2013-05-30 13:41:00,
2013-05-30 09:42:00,77.6,67.5,30.04,WNW,301,0.0,3.0,71,0.00,,SKC,0.19,VWS V14.01,2013-05-30 13:42:00,
2013-05-30 09:43:00,77.7,66.7,30.04,NNW,335,2.0,4.0,69,0.00,,SKC,0.19,VWS V14.01,2013-05-30 13:43:00,
2013-05-30 09:45:00,77.9,66.9,30.04,SSE,150,1.0,1.0,69,0.00,,SKC,0.19,VWS V14.01,2013-05-30 13:45:00,
2013-05-30 09:47:00,78.1,67.5,30.04,SSE,150,0.0,1.0,70,0.00,,SKC,0.19,VWS V14.01,2013-05-30 13:47:00,
2013-05-30 09:48:00,78.3,67.7,30.04,SSE,150,0.0,1.0,70,0.00,,SKC,0.19,VWS V14.01,2013-05-30 13:48:00,
2013-05-30 09:50:00,78.3,66.9,30.04,NW,313,0.0,0.0,68,0.00,,SKC,0.19,VWS V14.01,2013-05-30 13:50:00,
2013-05-30 09:51:00,78.3,66.9,30.04,NW,315,0.0,0.0,68,0.00,,SKC,0.19,VWS V14.01,2013-05-30 13:51:00,
2013-05-30 09:52:00,78.3,67.3,30.04,NW,313,0.0,0.0,69,0.00,,SKC,0.19,VWS V14.01,2013-05-30 13:52:00,
2013-05-30 09:54:00,78.5,67.5,30.04,NW,313,0.0,0.0,69,0.00,,SKC,0.19,VWS V14.01,2013-05-30 13:54:00,
2013-05-30 09:55:00,72.3,67.2,30.04,WSW,240,0.0,0.0,84,0.00,,SKC,0.19,VWS V14.01,2013-05-30 13:55:00,
2013-05-30 09:56:00,78.5,67.5,30.04,NW,312,0.0,0.0,69,0.00,,SKC,0.19,VWS V14.01,2013-05-30 13:56:00,
2013-05-30 09:57:00,78.5,67.5,30.04,WSW,258,0.0,0.0,69,0.00,,SKC,0.19,VWS V14.01,2013-05-30 13:57:00,
2013-05-30 09:58:00,78.3,67.3,30.04,WSW,257,0.0,0.0,69,0.00,,SKC,0.19,VWS V14.01,2013-05-30 13:58:00,
2013-05-30 09:59:00,78.3,67.3,30.03,WSW,257,0.0,1.0,69,0.00,,SKC,0.19,VWS V14.01,2013-05-30 13:59:00,
2013-05-30 10:00:00,73.0,67.5,30.04,WSW,237,0.0,0.0,83,0.00,,SKC,0.19,VWS V14.01,2013-05-30 14:00:00,
2013-05-30 10:01:00,78.3,66.9,30.03,SW,219,0.0,2.0,68,0.00,,SKC,0.19,VWS V14.01,2013-05-30 14:01:00,
2013-05-30 10:02:00,78.3,66.9,30.03,SW,222,0.0,2.0,68,0.00,,SKC,0.19,VWS V14.01,2013-05-30 14:02:00,
2013-05-30 10:03:00,78.5,67.5,30.03,SW,220,0.0,2.0,69,0.00,,SKC,0.19,VWS V14.01,2013-05-30 14:03:00,
2013-05-30 10:05:00,78.6,67.6,30.03,SW,220,0.0,0.0,69,0.00,,SKC,0.19,VWS V14.01,2013-05-30 14:05:00,
2013-05-30 10:07:00,78.8,68.2,30.03,SW,220,0.0,0.0,70,0.00,,SKC,0.19,VWS V14.01,2013-05-30 14:07:00,
2013-05-30 10:08:00,78.8,68.2,30.03,SW,222,1.0,1.0,70,0.00,,SKC,0.19,VWS V14.01,2013-05-30 14:08:00,
2013-05-30 10:10:00,79.0,67.1,30.03,SW,222,0.0,0.0,67,0.00,,SKC,0.19,VWS V14.01,2013-05-30 14:10:00,
2013-05-30 10:12:00,79.2,67.3,30.03,SE,131,2.0,5.0,67,0.00,,SKC,0.19,VWS V14.01,2013-05-30 14:12:00,
2013-05-30 10:13:00,79.2,67.3,30.03,SE,130,2.0,5.0,67,0.00,,SKC,0.19,VWS V14.01,2013-05-30 14:13:00,
2013-05-30 10:14:00,79.4,68.3,30.03,WSW,251,0.0,5.0,69,0.00,,SKC,0.19,VWS V14.01,2013-05-30 14:14:00,
2013-05-30 10:15:00,79.4,67.1,30.03,SSW,192,0.0,0.0,66,0.00,,SKC,0.19,VWS V14.01,2013-05-30 14:15:00,
2013-05-30 10:17:00,79.8,67.0,30.03,SE,144,1.0,1.0,65,0.00,,SKC,0.19,VWS V14.01,2013-05-30 14:17:00,
2013-05-30 10:18:00,79.8,67.0,30.03,SE,144,2.0,2.0,65,0.00,,SKC,0.19,VWS V14.01,2013-05-30 14:18:00,
2013-05-30 10:19:00,79.9,67.1,30.03,SE,144,0.0,2.0,65,0.00,,SKC,0.19,VWS V14.01,2013-05-30 14:19:00,
2013-05-30 10:20:00,75.1,66.6,30.04,WSW,250,0.0,0.0,75,0.00,,SKC,0.19,VWS V14.01,2013-05-30 14:20:00,
2013-05-30 10:21:00,80.1,67.3,30.03,SE,143,0.0,0.0,65,0.00,,SKC,0.19,VWS V14.01,2013-05-30 14:21:00,
2013-05-30 10:23:00,80.3,67.5,30.03,SE,138,2.0,2.0,65,0.00,,SKC,0.19,VWS V14.01,2013-05-30 14:23:00,
2013-05-30 10:24:00,80.3,67.5,30.03,SE,134,0.0,2.0,65,0.00,,SKC,0.19,VWS V14.01,2013-05-30 14:24:00,
2013-05-30 10:25:00,74.7,65.9,30.04,SE,141,0.0,0.0,74,0.00,,SKC,0.19,VWS V14.01,2013-05-30 14:25:00,
2013-05-30 10:26:00,80.5,67.7,30.03,SE,134,0.0,0.0,65,0.00,,SKC,0.19,VWS V14.01,2013-05-30 14:26:00,
2013-05-30 10:28:00,80.5,67.2,30.03,SE,134,0.0,0.0,64,0.00,,SKC,0.19,VWS V14.01,2013-05-30 14:28:00,
2013-05-30 10:29:00,80.7,68.3,30.03,North,354,3.0,3.0,66,0.00,,SKC,0.19,VWS V14.01,2013-05-30 14:29:00,
2013-05-30 10:30:00,75.6,66.3,30.04,NNW,343,0.0,5.0,73,0.00,,SKC,0.19,VWS V14.01,2013-05-30 14:30:00,
2013-05-30 10:31:00,80.7,68.3,30.03,South,185,0.0,0.0,66,0.00,,SKC,0.19,VWS V14.01,2013-05-30 14:31:00,
2013-05-30 10:33:00,80.9,67.6,30.03,South,178,0.0,1.0,64,0.00,,SKC,0.19,VWS V14.01,2013-05-30 14:33:00,
2013-05-30 10:34:00,80.9,67.6,30.03,South,181,0.0,1.0,64,0.00,,SKC,0.19,VWS V14.01,2013-05-30 14:34:00,
2013-05-30 10:35:00,76.5,66.8,30.04,North,357,0.0,4.0,72,0.00,,SKC,0.19,VWS V14.01,2013-05-30 14:35:00,
2013-05-30 10:37:00,81.1,67.8,30.03,NW,315,0.0,7.0,64,0.00,,SKC,0.19,VWS V14.01,2013-05-30 14:37:00,
2013-05-30 10:38:00,81.1,67.8,30.03,NW,313,0.0,7.0,64,0.00,,SKC,0.19,VWS V14.01,2013-05-30 14:38:00,
2013-05-30 10:39:00,81.2,68.3,30.03,WNW,302,0.0,7.0,65,0.00,,SKC,0.19,VWS V14.01,2013-05-30 14:39:00,
2013-05-30 10:40:00,81.2,68.3,30.03,NW,318,2.0,7.0,65,0.00,,SKC,0.19,VWS V14.01,2013-05-30 14:40:00,
2013-05-30 10:42:00,81.2,67.9,30.03,ESE,120,2.0,2.0,64,0.00,,SKC,0.19,VWS V14.01,2013-05-30 14:42:00,
2013-05-30 10:43:00,81.4,67.6,30.03,North,357,1.0,2.0,63,0.00,,SKC,0.19,VWS V14.01,2013-05-30 14:43:00,
2013-05-30 10:44:00,81.4,67.1,30.02,NNW,343,2.0,2.0,62,0.00,,SKC,0.19,VWS V14.01,2013-05-30 14:44:00,
2013-05-30 10:45:00,81.4,67.1,30.02,SSE,155,3.0,3.0,62,0.00,,SKC,0.19,VWS V14.01,2013-05-30 14:45:00,
2013-05-30 10:48:00,81.6,67.8,30.02,NNW,344,0.0,3.0,63,0.00,,SKC,0.19,VWS V14.01,2013-05-30 14:48:00,
2013-05-30 10:50:00,81.6,67.8,30.02,WNW,282,0.0,3.0,63,0.00,,SKC,0.19,VWS V14.01,2013-05-30 14:50:00,
2013-05-30 10:51:00,81.4,67.6,30.02,WSW,251,0.0,0.0,63,0.00,,SKC,0.19,VWS V14.01,2013-05-30 14:51:00,
2013-05-30 10:53:00,81.4,66.7,30.02,WSW,250,0.0,0.0,61,0.00,,SKC,0.19,VWS V14.01,2013-05-30 14:53:00,
2013-05-30 10:55:00,81.4,66.7,30.02,SE,141,0.0,1.0,61,0.00,,SKC,0.19,VWS V14.01,2013-05-30 14:55:00,
2013-05-30 10:56:00,81.6,67.3,30.02,SE,138,0.0,0.0,62,0.00,,SKC,0.19,VWS V14.01,2013-05-30 14:56:00,
2013-05-30 10:59:00,81.8,67.5,30.02,SE,141,0.0,0.0,62,0.00,,SKC,0.19,VWS V14.01,2013-05-30 14:59:00,
2013-05-30 11:00:00,81.8,67.5,30.02,SE,140,0.0,0.0,62,0.00,,SKC,0.19,VWS V14.01,2013-05-30 15:00:00,
2013-05-30 11:01:00,81.6,67.3,30.02,SW,229,1.0,1.0,62,0.00,,SKC,0.19,VWS V14.01,2013-05-30 15:01:00,
2013-05-30 11:04:00,81.6,67.3,30.02,NW,306,0.0,4.0,62,0.00,,SKC,0.19,VWS V14.01,2013-05-30 15:04:00,
2013-05-30 11:05:00,81.6,67.3,30.02,WNW,301,0.0,0.0,62,0.00,,SKC,0.19,VWS V14.01,2013-05-30 15:05:00,
2013-05-30 11:07:00,81.6,66.9,30.02,NW,312,0.0,0.0,61,0.00,,SKC,0.19,VWS V14.01,2013-05-30 15:07:00,
2013-05-30 11:09:00,81.8,66.6,30.02,North,354,0.0,0.0,60,0.00,,SKC,0.19,VWS V14.01,2013-05-30 15:09:00,
2013-05-30 11:10:00,81.8,66.6,30.02,SE,134,2.0,3.0,60,0.00,,SKC,0.19,VWS V14.01,2013-05-30 15:10:00,
2013-05-30 11:11:00,82.0,66.8,30.02,SE,137,0.0,3.0,60,0.00,,SKC,0.19,VWS V14.01,2013-05-30 15:11:00,
2013-05-30 11:12:00,82.0,66.8,30.02,SE,136,0.0,3.0,60,0.00,,SKC,0.19,VWS V14.01,2013-05-30 15:12:00,
2013-05-30 11:14:00,82.0,66.8,30.02,SSW,202,0.0,3.0,60,0.00,,SKC,0.19,VWS V14.01,2013-05-30 15:14:00,
2013-05-30 11:15:00,82.0,66.8,30.02,SSW,205,0.0,3.0,60,0.00,,SKC,0.19,VWS V14.01,2013-05-30 15:15:00,
2013-05-30 11:17:00,82.0,66.8,30.02,WSW,248,0.0,1.0,60,0.00,,SKC,0.19,VWS V14.01,2013-05-30 15:17:00,
2013-05-30 11:19:00,82.0,66.8,30.02,WNW,302,0.0,1.0,60,0.00,,SKC,0.19,VWS V14.01,2013-05-30 15:19:00,
2013-05-30 11:20:00,82.2,66.5,30.02,WNW,295,0.0,1.0,59,0.00,,SKC,0.19,VWS V14.01,2013-05-30 15:20:00,
2013-05-30 11:22:00,82.2,66.5,30.02,West,263,0.0,3.0,59,0.00,,SKC,0.19,VWS V14.01,2013-05-30 15:22:00,
2013-05-30 11:25:00,82.2,66.0,30.02,SSE,160,0.0,10.0,58,0.00,,SKC,0.19,VWS V14.01,2013-05-30 15:25:00,
2013-05-30 11:26:00,82.4,66.7,30.02,SSW,208,0.0,0.0,59,0.00,,SKC,0.19,VWS V14.01,2013-05-30 15:26:00,
2013-05-30 11:27:00,82.2,66.0,30.02,SW,227,0.0,2.0,58,0.00,,SKC,0.19,VWS V14.01,2013-05-30 15:27:00,
2013-05-30 11:28:00,82.2,66.0,30.02,SW,234,0.0,2.0,58,0.00,,SKC,0.19,VWS V14.01,2013-05-30 15:28:00,
2013-05-30 11:30:00,82.4,66.7,30.02,SSE,150,2.0,2.0,59,0.00,,SKC,0.19,VWS V14.01,2013-05-30 15:30:00,
2013-05-30 11:31:00,82.6,66.8,30.02,WSW,257,0.0,3.0,59,0.00,,SKC,0.19,VWS V14.01,2013-05-30 15:31:00,
2013-05-30 11:32:00,82.6,65.8,30.02,SSE,152,0.0,3.0,57,0.00,,SKC,0.19,VWS V14.01,2013-05-30 15:32:00,
2013-05-30 11:33:00,82.6,66.3,30.02,SE,138,0.0,3.0,58,0.00,,SKC,0.19,VWS V14.01,2013-05-30 15:33:00,
2013-05-30 11:35:00,82.8,66.5,30.02,NNW,340,0.0,0.0,58,0.00,,SKC,0.19,VWS V14.01,2013-05-30 15:35:00,
2013-05-30 11:36:00,83.0,66.7,30.02,ESE,120,0.0,0.0,58,0.00,,SKC,0.19,VWS V14.01,2013-05-30 15:36:00,
2013-05-30 11:37:00,83.0,66.7,30.02,North,357,2.0,4.0,58,0.00,,SKC,0.19,VWS V14.01,2013-05-30 15:37:00,
2013-05-30 11:38:00,83.2,66.9,30.02,North,357,0.0,4.0,58,0.00,,SKC,0.19,VWS V14.01,2013-05-30 15:38:00,
2013-05-30 11:39:00,83.2,66.4,30.02,WSW,243,0.0,4.0,57,0.00,,SKC,0.19,VWS V14.01,2013-05-30 15:39:00,
2013-05-30 11:40:00,83.2,66.4,30.02,SW,233,0.0,0.0,57,0.00,,SKC,0.19,VWS V14.01,2013-05-30 15:40:00,
2013-05-30 11:42:00,83.2,66.4,30.02,SW,232,0.0,0.0,57,0.00,,SKC,0.19,VWS V14.01,2013-05-30 15:42:00,
2013-05-30 11:44:00,83.2,66.4,30.02,SW,230,0.0,0.0,57,0.00,,SKC,0.19,VWS V14.01,2013-05-30 15:44:00,
2013-05-30 11:45:00,81.4,67.1,30.02,SSE,155,3.0,3.0,62,0.00,,SKC,0.19,VWS V14.01,2013-05-30 15:45:00,
2013-05-30 11:46:00,83.2,66.4,30.02,SW,234,0.0,0.0,57,0.00,,SKC,0.19,VWS V14.01,2013-05-30 15:46:00,
2013-05-30 11:47:00,83.2,66.4,30.02,NW,311,0.0,0.0,57,0.00,,SKC,0.19,VWS V14.01,2013-05-30 15:47:00,
2013-05-30 11:48:00,83.4,66.6,30.02,NW,312,0.0,0.0,57,0.00,,SKC,0.19,VWS V14.01,2013-05-30 15:48:00,
2013-05-30 11:49:00,83.4,66.6,30.02,NW,311,0.0,0.0,57,0.00,,SKC,0.19,VWS V14.01,2013-05-30 15:49:00,
2013-05-30 11:50:00,83.4,66.6,30.02,NW,323,0.0,0.0,57,0.00,,SKC,0.19,VWS V14.01,2013-05-30 15:50:00,
2013-05-30 11:52:00,83.4,66.6,30.02,West,281,0.0,1.0,57,0.00,,SKC,0.19,VWS V14.01,2013-05-30 15:52:00,
2013-05-30 11:53:00,83.6,66.8,30.02,WNW,301,0.0,4.0,57,0.00,,SKC,0.19,VWS V14.01,2013-05-30 15:53:00,
2013-05-30 11:55:00,83.8,67.0,30.02,NW,319,0.0,4.0,57,0.00,,SKC,0.19,VWS V14.01,2013-05-30 15:55:00,
2013-05-30 11:57:00,83.8,67.5,30.02,SW,236,0.0,0.0,58,0.00,,SKC,0.19,VWS V14.01,2013-05-30 15:57:00,
2013-05-30 11:59:00,84.0,67.1,30.02,SW,229,0.0,0.0,57,0.00,,SKC,0.19,VWS V14.01,2013-05-30 15:59:00,
2013-05-30 12:00:00,84.0,66.6,30.02,SW,230,3.0,3.0,56,0.00,,SKC,0.19,VWS V14.01,2013-05-30 16:00:00,
2013-05-30 12:01:00,84.0,66.6,30.02,SW,233,2.0,3.0,56,0.00,,SKC,0.19,VWS V14.01,2013-05-30 16:01:00,
2013-05-30 12:02:00,84.0,66.6,30.02,SW,236,2.0,3.0,56,0.00,,SKC,0.19,VWS V14.01,2013-05-30 16:02:00,
2013-05-30 12:03:00,84.0,66.6,30.02,SW,233,0.0,3.0,56,0.00,,SKC,0.19,VWS V14.01,2013-05-30 16:03:00,
2013-05-30 12:04:00,83.8,65.9,30.02,SSW,199,0.0,3.0,55,0.00,,SKC,0.19,VWS V14.01,2013-05-30 16:04:00,
2013-05-30 12:05:00,83.8,65.9,30.02,ESE,121,0.0,1.0,55,0.00,,SKC,0.19,VWS V14.01,2013-05-30 16:05:00,
2013-05-30 12:06:00,83.8,65.9,30.02,ESE,120,0.0,1.0,55,0.00,,SKC,0.19,VWS V14.01,2013-05-30 16:06:00,
2013-05-30 12:08:00,83.8,65.4,30.02,ESE,120,0.0,1.0,54,0.00,,SKC,0.19,VWS V14.01,2013-05-30 16:08:00,
2013-05-30 12:10:00,84.0,66.1,30.02,NW,318,0.0,0.0,55,0.00,,SKC,0.19,VWS V14.01,2013-05-30 16:10:00,
2013-05-30 12:12:00,84.0,66.1,30.02,West,281,2.0,3.0,55,0.00,,SKC,0.19,VWS V14.01,2013-05-30 16:12:00,
2013-05-30 12:13:00,84.0,65.1,30.02,WNW,282,1.0,3.0,53,0.00,,SKC,0.19,VWS V14.01,2013-05-30 16:13:00,
2013-05-30 12:15:00,83.8,64.9,30.02,West,280,0.0,0.0,53,0.00,,SKC,0.19,VWS V14.01,2013-05-30 16:15:00,
2013-05-30 12:16:00,84.0,65.1,30.02,SE,138,5.0,5.0,53,0.00,,SKC,0.19,VWS V14.01,2013-05-30 16:16:00,
2013-05-30 12:17:00,84.0,65.6,30.02,NNW,342,0.0,6.0,54,0.00,,SKC,0.19,VWS V14.01,2013-05-30 16:17:00,
2013-05-30 12:18:00,84.0,65.6,30.02,South,174,0.0,6.0,54,0.00,,SKC,0.19,VWS V14.01,2013-05-30 16:18:00,
2013-05-30 12:19:00,84.0,65.6,30.02,SSE,168,0.0,6.0,54,0.00,,SKC,0.19,VWS V14.01,2013-05-30 16:19:00,
2013-05-30 12:20:00,82.2,66.5,30.02,WNW,295,0.0,1.0,59,0.00,,SKC,0.19,VWS V14.01,2013-05-30 16:20:00,
2013-05-30 12:21:00,84.3,65.3,30.02,WSW,246,4.0,7.0,53,0.00,,SKC,0.19,VWS V14.01,2013-05-30 16:21:00,
2013-05-30 12:22:00,84.3,65.3,30.02,WSW,248,0.0,7.0,53,0.00,,SKC,0.19,VWS V14.01,2013-05-30 16:22:00,
2013-05-30 12:23:00,84.5,65.5,30.02,WSW,248,0.0,7.0,53,0.00,,SKC,0.19,VWS V14.01,2013-05-30 16:23:00,
2013-05-30 12:24:00,84.5,65.5,30.02,WSW,251,0.0,7.0,53,0.00,,SKC,0.19,VWS V14.01,2013-05-30 16:24:00,
2013-05-30 12:25:00,82.2,66.0,30.02,SSE,160,0.0,10.0,58,0.00,,SKC,0.19,VWS V14.01,2013-05-30 16:25:00,
2013-05-30 12:26:00,84.7,65.7,30.02,WSW,258,0.0,0.0,53,0.00,,SKC,0.19,VWS V14.01,2013-05-30 16:26:00,
2013-05-30 12:27:00,84.7,65.7,30.02,WSW,251,0.0,1.0,53,0.00,,SKC,0.19,VWS V14.01,2013-05-30 16:27:00,
2013-05-30 12:29:00,84.7,65.7,30.02,SW,234,2.0,3.0,53,0.00,,SKC,0.19,VWS V14.01,2013-05-30 16:29:00,
2013-05-30 12:30:00,82.4,66.7,30.02,SSE,150,2.0,2.0,59,0.00,,SKC,0.19,VWS V14.01,2013-05-30 16:30:00,
2013-05-30 12:31:00,84.9,65.9,30.01,WNW,298,0.0,1.0,53,0.00,,SKC,0.19,VWS V14.01,2013-05-30 16:31:00,
2013-05-30 12:32:00,84.9,65.9,30.01,WNW,292,0.0,1.0,53,0.00,,SKC,0.19,VWS V14.01,2013-05-30 16:32:00,
2013-05-30 12:34:00,84.9,66.4,30.01,WNW,291,0.0,1.0,54,0.00,,SKC,0.19,VWS V14.01,2013-05-30 16:34:00,
2013-05-30 12:35:00,84.9,66.4,30.01,WNW,296,0.0,1.0,54,0.00,,SKC,0.19,VWS V14.01,2013-05-30 16:35:00,
2013-05-30 12:36:00,84.9,66.4,30.01,North,356,0.0,1.0,54,0.00,,SKC,0.19,VWS V14.01,2013-05-30 16:36:00,
2013-05-30 12:39:00,84.9,66.4,30.01,ESE,119,0.0,1.0,54,0.00,,SKC,0.19,VWS V14.01,2013-05-30 16:39:00,
2013-05-30 12:40:00,84.9,66.4,30.01,SE,124,0.0,1.0,54,0.00,,SKC,0.19,VWS V14.01,2013-05-30 16:40:00,
2013-05-30 12:41:00,84.9,65.9,30.01,ESE,119,0.0,0.0,53,0.00,,SKC,0.19,VWS V14.01,2013-05-30 16:41:00,
2013-05-30 12:42:00,84.9,65.9,30.01,ESE,119,0.0,0.0,53,0.00,,SKC,0.19,VWS V14.01,2013-05-30 16:42:00,
2013-05-30 12:44:00,84.9,65.3,30.01,NW,319,0.0,3.0,52,0.00,,SKC,0.19,VWS V14.01,2013-05-30 16:44:00,
2013-05-30 12:45:00,84.9,65.3,30.01,NNW,340,0.0,0.0,52,0.00,,SKC,0.19,VWS V14.01,2013-05-30 16:45:00,
2013-05-30 12:47:00,85.1,66.1,30.01,SW,233,0.0,3.0,53,0.00,,SKC,0.19,VWS V14.01,2013-05-30 16:47:00,
2013-05-30 12:50:00,85.1,65.5,30.01,WSW,239,0.0,3.0,52,0.00,,SKC,0.19,VWS V14.01,2013-05-30 16:50:00,
2013-05-30 12:51:00,85.1,65.5,30.01,SW,232,0.0,0.0,52,0.00,,SKC,0.19,VWS V14.01,2013-05-30 16:51:00,
2013-05-30 12:52:00,85.1,65.5,30.01,SW,232,0.0,0.0,52,0.00,,SKC,0.19,VWS V14.01,2013-05-30 16:52:00,
2013-05-30 12:53:00,85.1,65.5,30.01,SW,234,0.0,0.0,52,0.00,,SKC,0.19,VWS V14.01,2013-05-30 16:53:00,
2013-05-30 12:55:00,85.1,65.5,30.01,SSW,196,0.0,0.0,52,0.00,,SKC,0.19,VWS V14.01,2013-05-30 16:55:00,
2013-05-30 12:56:00,85.1,65.5,30.01,SSW,196,0.0,0.0,52,0.00,,SKC,0.19,VWS V14.01,2013-05-30 16:56:00,
2013-05-30 12:57:00,85.1,65.0,30.01,SSW,195,0.0,1.0,51,0.00,,SKC,0.19,VWS V14.01,2013-05-30 16:57:00,
2013-05-30 12:58:00,85.1,65.0,30.01,SE,124,0.0,1.0,51,0.00,,SKC,0.19,VWS V14.01,2013-05-30 16:58:00,
2013-05-30 13:00:00,85.5,66.4,30.00,NW,313,1.0,3.0,53,0.00,,SKC,0.19,VWS V14.01,2013-05-30 17:00:00,
2013-05-30 13:01:00,85.5,66.4,30.00,NW,313,0.0,3.0,53,0.00,,SKC,0.19,VWS V14.01,2013-05-30 17:01:00,
2013-05-30 13:02:00,85.7,66.6,30.00,NW,308,0.0,3.0,53,0.00,,SKC,0.19,VWS V14.01,2013-05-30 17:02:00,
2013-05-30 13:03:00,85.7,65.5,30.00,SE,140,0.0,3.0,51,0.00,,SKC,0.19,VWS V14.01,2013-05-30 17:03:00,
2013-05-30 13:05:00,85.7,65.5,30.00,SE,133,1.0,6.0,51,0.00,,SKC,0.19,VWS V14.01,2013-05-30 17:05:00,
2013-05-30 13:06:00,85.9,65.1,30.00,SE,131,0.0,6.0,50,0.00,,SKC,0.19,VWS V14.01,2013-05-30 17:06:00,
2013-05-30 13:07:00,85.9,65.1,30.00,SE,133,0.0,6.0,50,0.00,,SKC,0.19,VWS V14.01,2013-05-30 17:07:00,
2013-05-30 13:08:00,85.9,65.1,30.00,SW,217,0.0,6.0,50,0.00,,SKC,0.19,VWS V14.01,2013-05-30 17:08:00,
2013-05-30 13:10:00,84.0,66.1,30.02,NW,315,0.0,2.0,55,0.00,,SKC,0.19,VWS V14.01,2013-05-30 17:10:00,
2013-05-30 13:11:00,85.9,65.7,30.00,West,264,3.0,4.0,51,0.00,,SKC,0.19,VWS V14.01,2013-05-30 17:11:00,
2013-05-30 13:12:00,85.9,64.0,30.00,SW,233,0.0,4.0,48,0.00,,SKC,0.19,VWS V14.01,2013-05-30 17:12:00,
2013-05-30 13:13:00,85.9,64.5,30.00,SSE,164,0.0,4.0,49,0.00,,SKC,0.19,VWS V14.01,2013-05-30 17:13:00,
2013-05-30 13:14:00,85.9,65.1,30.00,SSW,209,0.0,4.0,50,0.00,,SKC,0.19,VWS V14.01,2013-05-30 17:14:00,
2013-05-30 13:15:00,83.8,64.9,30.02,West,281,0.0,3.0,53,0.00,,SKC,0.19,VWS V14.01,2013-05-30 17:15:00,
2013-05-30 13:16:00,85.9,65.7,30.00,ESE,121,0.0,0.0,51,0.00,,SKC,0.19,VWS V14.01,2013-05-30 17:16:00,
2013-05-30 13:17:00,85.9,65.1,30.00,ESE,123,0.0,0.0,50,0.00,,SKC,0.19,VWS V14.01,2013-05-30 17:17:00,
2013-05-30 13:19:00,86.1,65.3,30.00,SW,230,2.0,6.0,50,0.00,,SKC,0.19,VWS V14.01,2013-05-30 17:19:00,
2013-05-30 13:20:00,84.1,65.1,30.02,SE,143,3.0,6.0,53,0.00,,SKC,0.19,VWS V14.01,2013-05-30 17:20:00,
2013-05-30 13:22:00,86.1,64.1,30.00,North,354,0.0,3.0,48,0.00,,SKC,0.19,VWS V14.01,2013-05-30 17:22:00,
2013-05-30 13:24:00,86.1,64.7,30.00,SW,217,0.0,3.0,49,0.00,,SKC,0.19,VWS V14.01,2013-05-30 17:24:00,
2013-05-30 13:25:00,84.5,65.5,30.02,WSW,248,0.0,7.0,53,0.00,,SKC,0.19,VWS V14.01,2013-05-30 17:25:00,
2013-05-30 13:27:00,85.9,65.7,30.00,SW,223,0.0,0.0,51,0.00,,SKC,0.19,VWS V14.01,2013-05-30 17:27:00,
2013-05-30 13:28:00,86.1,65.9,30.00,SW,220,0.0,0.0,51,0.00,,SKC,0.19,VWS V14.01,2013-05-30 17:28:00,
2013-05-30 13:29:00,86.1,65.9,30.00,WSW,246,4.0,4.0,51,0.00,,SKC,0.19,VWS V14.01,2013-05-30 17:29:00,
2013-05-30 13:30:00,85.9,65.7,30.01,WSW,247,0.0,0.0,51,0.00,,SKC,0.19,VWS V14.01,2013-05-30 17:30:00,
2013-05-30 13:32:00,85.9,65.7,30.01,SW,220,1.0,1.0,51,0.00,,SKC,0.19,VWS V14.01,2013-05-30 17:32:00,
2013-05-30 13:34:00,85.9,64.5,30.01,WNW,284,3.0,4.0,49,0.00,,SKC,0.19,VWS V14.01,2013-05-30 17:34:00,
2013-05-30 13:35:00,85.9,64.5,30.01,WSW,254,0.0,0.0,49,0.00,,SKC,0.19,VWS V14.01,2013-05-30 17:35:00,
2013-05-30 13:38:00,86.1,64.7,30.01,SE,131,3.0,3.0,49,0.00,,SKC,0.19,VWS V14.01,2013-05-30 17:38:00,
2013-05-30 13:39:00,86.3,64.9,30.01,SE,144,2.0,3.0,49,0.00,,SKC,0.19,VWS V14.01,2013-05-30 17:39:00,
2013-05-30 13:40:00,86.5,65.1,30.01,SE,144,0.0,3.0,49,0.00,,SKC,0.19,VWS V14.01,2013-05-30 17:40:00,
2013-05-30 13:41:00,86.5,65.1,30.01,SE,144,0.0,0.0,49,0.00,,SKC,0.19,VWS V14.01,2013-05-30 17:41:00,
2013-05-30 13:44:00,86.7,65.9,30.01,SE,133,5.0,5.0,50,0.00,,SKC,0.19,VWS V14.01,2013-05-30 17:44:00,
2013-05-30 13:45:00,86.7,64.7,30.01,SE,124,5.0,6.0,48,0.00,,SKC,0.19,VWS V14.01,2013-05-30 17:45:00,
2013-05-30 13:46:00,86.7,64.7,30.01,WSW,243,0.0,5.0,48,0.00,,SKC,0.19,VWS V14.01,2013-05-30 17:46:00,
2013-05-30 13:49:00,87.0,66.1,30.01,NNW,332,0.0,5.0,50,0.00,,SKC,0.19,VWS V14.01,2013-05-30 17:49:00,
2013-05-30 13:50:00,85.1,65.5,30.01,WSW,240,0.0,3.0,52,0.00,,SKC,0.19,VWS V14.01,2013-05-30 17:50:00,
2013-05-30 13:51:00,87.0,65.6,30.01,North,349,0.0,0.0,49,0.00,,SKC,0.19,VWS V14.01,2013-05-30 17:51:00,
2013-05-30 13:52:00,87.0,65.6,30.01,North,349,0.0,1.0,49,0.00,,SKC,0.19,VWS V14.01,2013-05-30 17:52:00,
2013-05-30 13:54:00,87.2,65.1,30.01,NNW,330,0.0,3.0,48,0.00,,SKC,0.19,VWS V14.01,2013-05-30 17:54:00,
2013-05-30 13:55:00,85.1,65.5,30.01,SSW,196,0.0,0.0,52,0.00,,SKC,0.19,VWS V14.01,2013-05-30 17:55:00,
2013-05-30 13:56:00,87.4,65.3,30.01,NNW,347,0.0,0.0,48,0.00,,SKC,0.19,VWS V14.01,2013-05-30 17:56:00,
2013-05-30 13:57:00,87.4,65.9,30.01,NNW,329,1.0,1.0,49,0.00,,SKC,0.19,VWS V14.01,2013-05-30 17:57:00,
2013-05-30 14:00:00,87.6,64.9,30.01,SSE,158,0.0,3.0,47,0.00,,SKC,0.19,VWS V14.01,2013-05-30 18:00:00,
2013-05-30 14:01:00,87.6,66.1,30.01,SSE,157,0.0,0.0,49,0.00,,SKC,0.19,VWS V14.01,2013-05-30 18:01:00,
2013-05-30 14:02:00,87.6,66.1,30.01,NNW,328,6.0,6.0,49,0.00,,SKC,0.19,VWS V14.01,2013-05-30 18:02:00,
2013-05-30 14:05:00,87.6,64.9,30.01,WNW,302,0.0,0.0,47,0.00,,SKC,0.19,VWS V14.01,2013-05-30 18:05:00,
2013-05-30 14:07:00,87.2,63.9,30.01,North,356,6.0,7.0,46,0.00,,SKC,0.19,VWS V14.01,2013-05-30 18:07:00,
2013-05-30 14:10:00,87.0,65.6,30.01,SSW,203,0.0,0.0,49,0.00,,SKC,0.19,VWS V14.01,2013-05-30 18:10:00,
2013-05-30 14:11:00,86.7,65.3,30.01,SSW,205,0.0,0.0,49,0.00,,SKC,0.19,VWS V14.01,2013-05-30 18:11:00,
2013-05-30 14:12:00,86.7,65.3,30.01,WNW,294,0.0,0.0,49,0.00,,SKC,0.19,VWS V14.01,2013-05-30 18:12:00,
2013-05-30 14:15:00,85.9,65.1,30.00,SW,217,0.0,4.0,50,0.00,,SKC,0.19,VWS V14.01,2013-05-30 18:15:00,
2013-05-30 14:16:00,87.0,65.0,30.01,SE,131,0.0,0.0,48,0.00,,SKC,0.19,VWS V14.01,2013-05-30 18:16:00,
2013-05-30 14:17:00,87.2,65.7,30.01,NNW,329,0.0,5.0,49,0.00,,SKC,0.19,VWS V14.01,2013-05-30 18:17:00,
2013-05-30 14:18:00,87.2,65.7,30.01,SE,128,0.0,5.0,49,0.00,,SKC,0.19,VWS V14.01,2013-05-30 18:18:00,
2013-05-30 14:20:00,86.1,64.7,30.00,NNW,340,3.0,6.0,49,0.00,,SKC,0.19,VWS V14.01,2013-05-30 18:20:00,
2013-05-30 14:21:00,87.4,67.1,30.01,WSW,256,0.0,3.0,51,0.00,,SKC,0.19,VWS V14.01,2013-05-30 18:21:00,
2013-05-30 14:22:00,87.2,66.9,30.01,WNW,295,4.0,4.0,51,0.00,,SKC,0.19,VWS V14.01,2013-05-30 18:22:00,
2013-05-30 14:23:00,87.2,65.1,30.01,South,178,4.0,4.0,48,0.00,,SKC,0.19,VWS V14.01,2013-05-30 18:23:00,
2013-05-30 14:25:00,86.1,64.7,30.00,SW,220,0.0,3.0,49,0.00,,SKC,0.19,VWS V14.01,2013-05-30 18:25:00,
2013-05-30 14:27:00,87.0,64.3,30.01,SE,141,4.0,7.0,47,0.00,,SKC,0.19,VWS V14.01,2013-05-30 18:27:00,
2013-05-30 14:28:00,87.0,64.3,30.01,NNW,336,0.0,7.0,47,0.00,,SKC,0.19,VWS V14.01,2013-05-30 18:28:00,
2013-05-30 14:30:00,85.9,65.7,30.01,WSW,247,0.0,4.0,51,0.00,,SKC,0.19,VWS V14.01,2013-05-30 18:30:00,
2013-05-30 14:32:00,87.2,64.5,30.00,West,272,0.0,0.0,47,0.00,,SKC,0.19,VWS V14.01,2013-05-30 18:32:00,
2013-05-30 14:33:00,87.2,64.5,30.00,SSE,164,0.0,0.0,47,0.00,,SKC,0.19,VWS V14.01,2013-05-30 18:33:00,
2013-05-30 14:34:00,87.2,65.1,30.00,SE,144,0.0,3.0,48,0.00,,SKC,0.19,VWS V14.01,2013-05-30 18:34:00,
2013-05-30 14:35:00,85.9,64.5,30.01,WSW,257,0.0,4.0,49,0.00,,SKC,0.19,VWS V14.01,2013-05-30 18:35:00,
2013-05-30 14:37:00,87.4,65.3,30.00,WNW,302,0.0,4.0,48,0.00,,SKC,0.19,VWS V14.01,2013-05-30 18:37:00,
2013-05-30 14:38:00,87.4,65.3,30.00,WNW,302,0.0,4.0,48,0.00,,SKC,0.19,VWS V14.01,2013-05-30 18:38:00,
2013-05-30 14:39:00,87.4,65.3,30.00,NNW,346,0.0,5.0,48,0.00,,SKC,0.19,VWS V14.01,2013-05-30 18:39:00,
2013-05-30 14:40:00,86.5,65.1,30.01,SE,144,0.0,3.0,49,0.00,,SKC,0.19,VWS V14.01,2013-05-30 18:40:00,
2013-05-30 14:43:00,87.6,65.5,30.00,North,353,0.0,0.0,48,0.00,,SKC,0.19,VWS V14.01,2013-05-30 18:43:00,
2013-05-30 14:45:00,87.6,65.5,30.00,North,357,0.0,5.0,48,0.00,,SKC,0.19,VWS V14.01,2013-05-30 18:45:00,
2013-05-30 14:48:00,87.8,65.7,30.00,North,349,0.0,2.0,48,0.00,,SKC,0.19,VWS V14.01,2013-05-30 18:48:00,
2013-05-30 14:49:00,87.8,65.7,30.00,NNW,337,0.0,2.0,48,0.00,,SKC,0.19,VWS V14.01,2013-05-30 18:49:00,
2013-05-30 14:50:00,87.8,66.3,30.00,NNW,337,0.0,2.0,49,0.00,,SKC,0.19,VWS V14.01,2013-05-30 18:50:00,
2013-05-30 14:53:00,87.8,66.3,30.00,SE,141,3.0,5.0,49,0.00,,SKC,0.19,VWS V14.01,2013-05-30 18:53:00,
2013-05-30 14:54:00,87.8,65.1,30.00,NNW,343,0.0,5.0,47,0.00,,SKC,0.19,VWS V14.01,2013-05-30 18:54:00,
2013-05-30 14:55:00,87.8,65.1,30.00,NNW,330,0.0,5.0,47,0.00,,SKC,0.19,VWS V14.01,2013-05-30 18:55:00,
2013-05-30 14:58:00,87.8,64.5,30.00,North,354,0.0,5.0,46,0.00,,SKC,0.19,VWS V14.01,2013-05-30 18:58:00,
2013-05-30 14:59:00,87.8,64.5,30.00,North,354,0.0,6.0,46,0.00,,SKC,0.19,VWS V14.01,2013-05-30 18:59:00,
2013-05-30 15:00:00,87.8,64.5,30.00,NW,311,0.0,7.0,46,0.00,,SKC,0.19,VWS V14.01,2013-05-30 19:00:00,
2013-05-30 15:01:00,87.8,64.5,30.00,NW,311,0.0,7.0,46,0.00,,SKC,0.19,VWS V14.01,2013-05-30 19:01:00,
2013-05-30 15:03:00,87.6,64.3,30.00,North,354,5.0,7.0,46,0.00,,SKC,0.19,VWS V14.01,2013-05-30 19:03:00,
2013-05-30 15:04:00,87.4,64.1,30.00,SE,138,0.0,7.0,46,0.00,,SKC,0.19,VWS V14.01,2013-05-30 19:04:00,
2013-05-30 15:05:00,87.6,64.9,30.01,WNW,302,0.0,6.0,47,0.00,,SKC,0.19,VWS V14.01,2013-05-30 19:05:00,
2013-05-30 15:06:00,87.2,63.9,30.00,ESE,120,5.0,8.0,46,0.00,,SKC,0.19,VWS V14.01,2013-05-30 19:06:00,
2013-05-30 15:09:00,86.7,64.7,30.00,WNW,302,0.0,8.0,48,0.00,,SKC,0.19,VWS V14.01,2013-05-30 19:09:00,
2013-05-30 15:10:00,86.5,64.5,30.00,ESE,120,0.0,8.0,48,0.00,,SKC,0.19,VWS V14.01,2013-05-30 19:10:00,
2013-05-30 15:11:00,86.5,64.5,30.00,North,356,0.0,1.0,48,0.00,,SKC,0.19,VWS V14.01,2013-05-30 19:11:00,
2013-05-30 15:14:00,86.5,66.2,29.99,SW,232,0.0,2.0,51,0.00,,SKC,0.19,VWS V14.01,2013-05-30 19:14:00,
2013-05-30 15:15:00,86.5,66.2,29.99,SSW,206,0.0,2.0,51,0.00,,SKC,0.19,VWS V14.01,2013-05-30 19:15:00,
2013-05-30 15:16:00,86.5,65.7,29.99,SSE,167,0.0,0.0,50,0.00,,SKC,0.19,VWS V14.01,2013-05-30 19:16:00,
2013-05-30 15:17:00,86.5,65.7,29.99,NW,326,6.0,6.0,50,0.00,,SKC,0.19,VWS V14.01,2013-05-30 19:17:00,
2013-05-30 15:20:00,87.0,66.7,29.99,North,357,0.0,0.0,51,0.00,,SKC,0.19,VWS V14.01,2013-05-30 19:20:00,
2013-05-30 15:21:00,87.0,66.1,29.99,North,354,0.0,0.0,50,0.00,,SKC,0.19,VWS V14.01,2013-05-30 19:21:00,
2013-05-30 15:23:00,87.2,66.3,29.99,North,356,0.0,0.0,50,0.00,,SKC,0.19,VWS V14.01,2013-05-30 19:23:00,
2013-05-30 15:25:00,87.2,66.3,29.99,SSE,154,0.0,0.0,50,0.00,,SKC,0.19,VWS V14.01,2013-05-30 19:25:00,
2013-05-30 15:26:00,87.0,65.0,29.99,SSW,209,0.0,0.0,48,0.00,,SKC,0.19,VWS V14.01,2013-05-30 19:26:00,
2013-05-30 15:28:00,87.0,65.0,29.99,SSW,213,0.0,0.0,48,0.00,,SKC,0.19,VWS V14.01,2013-05-30 19:28:00,
2013-05-30 15:30:00,87.0,65.6,29.99,SSW,195,0.0,0.0,49,0.00,,SKC,0.19,VWS V14.01,2013-05-30 19:30:00,
2013-05-30 15:31:00,87.0,65.6,29.99,SSW,192,0.0,0.0,49,0.00,,SKC,0.19,VWS V14.01,2013-05-30 19:31:00,
2013-05-30 15:32:00,87.0,65.6,29.99,SSW,193,0.0,0.0,49,0.00,,SKC,0.19,VWS V14.01,2013-05-30 19:32:00,
2013-05-30 15:33:00,87.0,66.1,29.99,SSW,193,0.0,0.0,50,0.00,,SKC,0.19,VWS V14.01,2013-05-30 19:33:00,
2013-05-30 15:35:00,87.2,65.1,30.00,SE,143,0.0,3.0,48,0.00,,SKC,0.19,VWS V14.01,2013-05-30 19:35:00,
2013-05-30 15:36:00,87.0,66.1,29.99,SSW,213,0.0,1.0,50,0.00,,SKC,0.19,VWS V14.01,2013-05-30 19:36:00,
2013-05-30 15:37:00,87.0,66.7,29.99,WNW,296,0.0,2.0,51,0.00,,SKC,0.19,VWS V14.01,2013-05-30 19:37:00,
2013-05-30 15:38:00,87.0,66.7,29.99,WNW,295,0.0,2.0,51,0.00,,SKC,0.19,VWS V14.01,2013-05-30 19:38:00,
2013-05-30 15:40:00,87.4,65.9,30.00,North,349,0.0,5.0,49,0.00,,SKC,0.19,VWS V14.01,2013-05-30 19:40:00,
2013-05-30 15:41:00,87.2,65.7,29.99,SE,136,0.0,0.0,49,0.00,,SKC,0.19,VWS V14.01,2013-05-30 19:41:00,
2013-05-30 15:42:00,87.2,65.7,29.99,West,281,3.0,3.0,49,0.00,,SKC,0.19,VWS V14.01,2013-05-30 19:42:00,
2013-05-30 15:43:00,87.2,65.1,29.99,WNW,288,0.0,3.0,48,0.00,,SKC,0.19,VWS V14.01,2013-05-30 19:43:00,
2013-05-30 15:45:00,87.6,65.5,30.00,North,357,0.0,5.0,48,0.00,,SKC,0.19,VWS V14.01,2013-05-30 19:45:00,
2013-05-30 15:46:00,87.2,65.1,29.99,WNW,294,0.0,0.0,48,0.00,,SKC,0.19,VWS V14.01,2013-05-30 19:46:00,
2013-05-30 15:47:00,87.2,65.7,29.99,WNW,292,0.0,0.0,49,0.00,,SKC,0.19,VWS V14.01,2013-05-30 19:47:00,
2013-05-30 15:49:00,87.2,66.3,29.99,WNW,294,0.0,0.0,50,0.00,,SKC,0.19,VWS V14.01,2013-05-30 19:49:00,
2013-05-30 15:50:00,87.8,66.3,30.00,NNW,337,0.0,2.0,49,0.00,,SKC,0.19,VWS V14.01,2013-05-30 19:50:00,
2013-05-30 15:51:00,87.0,66.1,29.99,WNW,288,0.0,0.0,50,0.00,,SKC,0.19,VWS V14.01,2013-05-30 19:51:00,
2013-05-30 15:52:00,87.0,66.1,29.99,NNW,335,0.0,2.0,50,0.00,,SKC,0.19,VWS V14.01,2013-05-30 19:52:00,
2013-05-30 15:53:00,87.0,66.7,29.99,NNW,335,0.0,2.0,51,0.00,,SKC,0.19,VWS V14.01,2013-05-30 19:53:00,
2013-05-30 15:54:00,87.0,66.7,29.99,NNW,337,0.0,2.0,51,0.00,,SKC,0.19,VWS V14.01,2013-05-30 19:54:00,
2013-05-30 15:55:00,87.8,65.1,30.00,ESE,121,1.0,6.0,47,0.00,,SKC,0.19,VWS V14.01,2013-05-30 19:55:00,
2013-05-30 15:56:00,87.0,66.1,29.99,NNW,336,0.0,1.0,50,0.00,,SKC,0.19,VWS V14.01,2013-05-30 19:56:00,
2013-05-30 15:58:00,87.0,66.1,29.99,NNW,339,0.0,1.0,50,0.00,,SKC,0.19,VWS V14.01,2013-05-30 19:58:00,
2013-05-30 15:59:00,87.0,66.1,29.99,NNW,335,0.0,1.0,50,0.00,,SKC,0.19,VWS V14.01,2013-05-30 19:59:00,
2013-05-30 16:00:00,87.8,64.5,30.00,NW,316,0.0,6.0,46,0.00,,SKC,0.19,VWS V14.01,2013-05-30 20:00:00,
2013-05-30 16:02:00,86.7,67.0,29.99,NNW,339,0.0,0.0,52,0.00,,SKC,0.19,VWS V14.01,2013-05-30 20:02:00,
2013-05-30 16:03:00,86.5,66.8,29.99,NNW,335,0.0,0.0,52,0.00,,SKC,0.19,VWS V14.01,2013-05-30 20:03:00,
2013-05-30 16:04:00,86.5,65.7,29.99,West,271,0.0,0.0,50,0.00,,SKC,0.19,VWS V14.01,2013-05-30 20:04:00,
2013-05-30 16:05:00,87.4,64.1,30.00,WNW,291,0.0,7.0,46,0.00,,SKC,0.19,VWS V14.01,2013-05-30 20:05:00,
2013-05-30 16:07:00,86.3,67.2,29.99,NNW,336,1.0,5.0,53,0.00,,SKC,0.19,VWS V14.01,2013-05-30 20:07:00,
2013-05-30 16:08:00,86.3,67.7,29.99,SE,127,0.0,5.0,54,0.00,,SKC,0.19,VWS V14.01,2013-05-30 20:08:00,
2013-05-30 16:09:00,86.5,67.9,29.99,NNW,344,0.0,5.0,54,0.00,,SKC,0.19,VWS V14.01,2013-05-30 20:09:00,
2013-05-30 16:10:00,86.5,64.5,30.00,ESE,120,0.0,8.0,48,0.00,,SKC,0.19,VWS V14.01,2013-05-30 20:10:00,
2013-05-30 16:12:00,86.5,66.8,29.99,WSW,248,1.0,1.0,52,0.00,,SKC,0.19,VWS V14.01,2013-05-30 20:12:00,
2013-05-30 16:13:00,86.5,66.8,29.99,WSW,254,0.0,1.0,52,0.00,,SKC,0.19,VWS V14.01,2013-05-30 20:13:00,
2013-05-30 16:14:00,86.3,66.1,29.98,SSE,152,0.0,2.0,51,0.00,,SKC,0.19,VWS V14.01,2013-05-30 20:14:00,
2013-05-30 16:15:00,86.3,66.1,29.98,SSE,155,0.0,2.0,51,0.00,,SKC,0.19,VWS V14.01,2013-05-30 20:15:00,
2013-05-30 16:17:00,86.3,66.1,29.98,WNW,302,0.0,1.0,51,0.00,,SKC,0.19,VWS V14.01,2013-05-30 20:17:00,
2013-05-30 16:18:00,86.3,66.1,29.98,WNW,302,0.0,1.0,51,0.00,,SKC,0.19,VWS V14.01,2013-05-30 20:18:00,
2013-05-30 16:19:00,86.3,66.1,29.98,WNW,296,0.0,1.0,51,0.00,,SKC,0.19,VWS V14.01,2013-05-30 20:19:00,
2013-05-30 16:20:00,86.3,66.6,29.98,NW,304,0.0,1.0,52,0.00,,SKC,0.19,VWS V14.01,2013-05-30 20:20:00,
2013-05-30 16:22:00,86.3,66.6,29.98,WNW,301,0.0,0.0,52,0.00,,SKC,0.19,VWS V14.01,2013-05-30 20:22:00,
2013-05-30 16:23:00,86.3,67.7,29.98,NW,306,0.0,0.0,54,0.00,,SKC,0.19,VWS V14.01,2013-05-30 20:23:00,
2013-05-30 16:25:00,86.3,67.2,29.98,NNW,339,2.0,3.0,53,0.00,,SKC,0.19,VWS V14.01,2013-05-30 20:25:00,
2013-05-30 16:27:00,86.3,65.5,29.98,NW,325,0.0,7.0,50,0.00,,SKC,0.19,VWS V14.01,2013-05-30 20:27:00,
2013-05-30 16:28:00,86.3,65.5,29.98,West,268,0.0,7.0,50,0.00,,SKC,0.19,VWS V14.01,2013-05-30 20:28:00,
2013-05-30 16:30:00,86.1,67.0,29.98,WNW,287,0.0,0.0,53,0.00,,SKC,0.19,VWS V14.01,2013-05-30 20:30:00,
2013-05-30 16:31:00,86.1,66.4,29.98,NNW,332,0.0,0.0,52,0.00,,SKC,0.19,VWS V14.01,2013-05-30 20:31:00,
2013-05-30 16:32:00,85.9,65.7,29.98,WNW,284,0.0,0.0,51,0.00,,SKC,0.19,VWS V14.01,2013-05-30 20:32:00,
2013-05-30 16:33:00,85.9,65.7,29.98,West,280,0.0,0.0,51,0.00,,SKC,0.19,VWS V14.01,2013-05-30 20:33:00,
2013-05-30 16:35:00,85.9,66.2,29.98,WNW,282,0.0,0.0,52,0.00,,SKC,0.19,VWS V14.01,2013-05-30 20:35:00,
2013-05-30 16:36:00,85.7,66.1,29.98,WNW,282,0.0,0.0,52,0.00,,SKC,0.19,VWS V14.01,2013-05-30 20:36:00,
2013-05-30 16:38:00,85.9,66.8,29.98,WNW,284,0.0,0.0,53,0.00,,SKC,0.19,VWS V14.01,2013-05-30 20:38:00,
2013-05-30 16:39:00,85.9,66.8,29.98,WNW,282,0.0,0.0,53,0.00,,SKC,0.19,VWS V14.01,2013-05-30 20:39:00,
2013-05-30 16:40:00,85.9,66.8,29.98,WNW,292,0.0,0.0,53,0.00,,SKC,0.19,VWS V14.01,2013-05-30 20:40:00,
2013-05-30 16:41:00,86.1,67.0,29.98,WSW,253,1.0,2.0,53,0.00,,SKC,0.19,VWS V14.01,2013-05-30 20:41:00,
2013-05-30 16:44:00,86.1,67.0,29.98,WSW,256,0.0,2.0,53,0.00,,SKC,0.19,VWS V14.01,2013-05-30 20:44:00,
2013-05-30 16:45:00,86.1,67.0,29.98,WSW,256,0.0,0.0,53,0.00,,SKC,0.19,VWS V14.01,2013-05-30 20:45:00,
2013-05-30 16:47:00,86.1,67.0,29.98,WSW,244,0.0,1.0,53,0.00,,SKC,0.19,VWS V14.01,2013-05-30 20:47:00,
2013-05-30 16:50:00,86.1,65.9,29.98,SE,144,1.0,3.0,51,0.00,,SKC,0.19,VWS V14.01,2013-05-30 20:50:00,
2013-05-30 16:51:00,86.1,65.9,29.98,West,261,0.0,3.0,51,0.00,,SKC,0.19,VWS V14.01,2013-05-30 20:51:00,
2013-05-30 16:52:00,86.1,65.9,29.98,West,261,0.0,3.0,51,0.00,,SKC,0.19,VWS V14.01,2013-05-30 20:52:00,
2013-05-30 16:55:00,86.1,67.0,29.98,SE,140,2.0,4.0,53,0.00,,SKC,0.19,VWS V14.01,2013-05-30 20:55:00,
2013-05-30 16:56:00,86.3,67.2,29.98,SE,140,0.0,4.0,53,0.00,,SKC,0.19,VWS V14.01,2013-05-30 20:56:00,
2013-05-30 16:57:00,86.5,67.3,29.98,NW,312,0.0,4.0,53,0.00,,SKC,0.19,VWS V14.01,2013-05-30 20:57:00,
2013-05-30 16:58:00,86.5,67.3,29.98,NW,313,0.0,4.0,53,0.00,,SKC,0.19,VWS V14.01,2013-05-30 20:58:00,
2013-05-30 17:00:00,86.5,66.8,29.98,ESE,123,5.0,6.0,52,0.00,,SKC,0.19,VWS V14.01,2013-05-30 21:00:00,
2013-05-30 17:01:00,86.5,65.1,29.98,North,356,0.0,6.0,49,0.00,,SKC,0.19,VWS V14.01,2013-05-30 21:01:00,
2013-05-30 17:02:00,86.7,65.3,29.98,SSE,157,0.0,6.0,49,0.00,,SKC,0.19,VWS V14.01,2013-05-30 21:02:00,
2013-05-30 17:03:00,87.0,65.6,29.98,SE,133,0.0,6.0,49,0.00,,SKC,0.19,VWS V14.01,2013-05-30 21:03:00,
2013-05-30 17:05:00,87.0,65.6,29.98,NNW,346,0.0,1.0,49,0.00,,SKC,0.19,VWS V14.01,2013-05-30 21:05:00,
2013-05-30 17:06:00,87.0,65.6,29.98,SE,126,1.0,3.0,49,0.00,,SKC,0.19,VWS V14.01,2013-05-30 21:06:00,
2013-05-30 17:07:00,87.2,65.7,29.98,ESE,123,0.0,3.0,49,0.00,,SKC,0.19,VWS V14.01,2013-05-30 21:07:00,
2013-05-30 17:08:00,87.2,65.1,29.98,SE,127,0.0,3.0,48,0.00,,SKC,0.19,VWS V14.01,2013-05-30 21:08:00,
2013-05-30 17:10:00,87.2,65.1,29.98,West,268,0.0,0.0,48,0.00,,SKC,0.19,VWS V14.01,2013-05-30 21:10:00,
2013-05-30 17:11:00,87.2,65.1,29.98,West,264,0.0,0.0,48,0.00,,SKC,0.19,VWS V14.01,2013-05-30 21:11:00,
2013-05-30 17:12:00,87.2,65.1,29.98,West,264,0.0,0.0,48,0.00,,SKC,0.19,VWS V14.01,2013-05-30 21:12:00,
2013-05-30 17:13:00,87.4,65.3,29.98,WSW,243,0.0,0.0,48,0.00,,SKC,0.19,VWS V14.01,2013-05-30 21:13:00,
2013-05-30 17:15:00,86.3,66.1,29.98,SSE,155,0.0,2.0,51,0.00,,SKC,0.19,VWS V14.01,2013-05-30 21:15:00,
2013-05-30 17:16:00,87.2,65.7,29.98,West,277,0.0,0.0,49,0.00,,SKC,0.19,VWS V14.01,2013-05-30 21:16:00,
2013-05-30 17:18:00,87.2,65.1,29.98,WNW,291,0.0,0.0,48,0.00,,SKC,0.19,VWS V14.01,2013-05-30 21:18:00,
2013-05-30 17:19:00,87.2,65.1,29.98,WNW,291,0.0,0.0,48,0.00,,SKC,0.19,VWS V14.01,2013-05-30 21:19:00,
2013-05-30 17:20:00,86.3,66.6,29.98,NW,304,0.0,1.0,52,0.00,,SKC,0.19,VWS V14.01,2013-05-30 21:20:00,
2013-05-30 17:21:00,87.0,66.1,29.98,WNW,282,0.0,1.0,50,0.00,,SKC,0.19,VWS V14.01,2013-05-30 21:21:00,
2013-05-30 17:22:00,86.7,65.9,29.98,West,272,0.0,1.0,50,0.00,,SKC,0.19,VWS V14.01,2013-05-30 21:22:00,
2013-05-30 17:23:00,86.7,65.9,29.98,West,274,0.0,1.0,50,0.00,,SKC,0.19,VWS V14.01,2013-05-30 21:23:00,
2013-05-30 17:24:00,86.5,65.7,29.98,West,274,0.0,1.0,50,0.00,,SKC,0.19,VWS V14.01,2013-05-30 21:24:00,
2013-05-30 17:25:00,86.3,67.2,29.98,NNW,339,1.0,3.0,53,0.00,,SKC,0.19,VWS V14.01,2013-05-30 21:25:00,
2013-05-30 17:27:00,86.5,65.1,29.98,SSE,157,0.0,0.0,49,0.00,,SKC,0.19,VWS V14.01,2013-05-30 21:27:00,
2013-05-30 17:28:00,86.5,65.1,29.98,SSE,161,0.0,0.0,49,0.00,,SKC,0.19,VWS V14.01,2013-05-30 21:28:00,
2013-05-30 17:29:00,86.5,65.1,29.98,SSE,162,0.0,0.0,49,0.00,,SKC,0.19,VWS V14.01,2013-05-30 21:29:00,
2013-05-30 17:30:00,86.5,66.8,29.98,SSE,158,0.0,0.0,52,0.00,,SKC,0.19,VWS V14.01,2013-05-30 21:30:00,
2013-05-30 17:32:00,86.3,66.1,29.98,SW,223,0.0,3.0,51,0.00,,SKC,0.19,VWS V14.01,2013-05-30 21:32:00,
2013-05-30 17:33:00,86.3,66.1,29.98,SW,222,0.0,3.0,51,0.00,,SKC,0.19,VWS V14.01,2013-05-30 21:33:00,
2013-05-30 17:34:00,86.3,65.5,29.98,SW,222,0.0,3.0,50,0.00,,SKC,0.19,VWS V14.01,2013-05-30 21:34:00,
2013-05-30 17:35:00,85.9,66.2,29.98,West,281,0.0,0.0,52,0.00,,SKC,0.19,VWS V14.01,2013-05-30 21:35:00,
2013-05-30 17:36:00,86.3,65.5,29.98,SW,223,0.0,0.0,50,0.00,,SKC,0.19,VWS V14.01,2013-05-30 21:36:00,
2013-05-30 17:37:00,86.3,65.5,29.98,North,353,2.0,3.0,50,0.00,,SKC,0.19,VWS V14.01,2013-05-30 21:37:00,
2013-05-30 17:38:00,86.3,65.5,29.98,North,357,0.0,3.0,50,0.00,,SKC,0.19,VWS V14.01,2013-05-30 21:38:00,
2013-05-30 17:39:00,86.3,65.5,29.98,North,357,0.0,3.0,50,0.00,,SKC,0.19,VWS V14.01,2013-05-30 21:39:00,
2013-05-30 17:40:00,86.3,65.5,29.98,North,357,0.0,3.0,50,0.00,,SKC,0.19,VWS V14.01,2013-05-30 21:40:00,
2013-05-30 17:41:00,86.3,65.5,29.98,ESE,123,0.0,0.0,50,0.00,,SKC,0.19,VWS V14.01,2013-05-30 21:41:00,
2013-05-30 17:42:00,86.3,64.9,29.98,NNW,342,0.0,4.0,49,0.00,,SKC,0.19,VWS V14.01,2013-05-30 21:42:00,
2013-05-30 17:44:00,86.3,64.9,29.97,NNW,342,0.0,4.0,49,0.00,,SKC,0.19,VWS V14.01,2013-05-30 21:44:00,
2013-05-30 17:45:00,86.3,65.5,29.97,NNW,339,0.0,0.0,50,0.00,,SKC,0.19,VWS V14.01,2013-05-30 21:45:00,
2013-05-30 17:46:00,86.3,65.5,29.97,NNW,342,1.0,1.0,50,0.00,,SKC,0.19,VWS V14.01,2013-05-30 21:46:00,
2013-05-30 17:48:00,86.3,64.9,29.97,North,357,0.0,3.0,49,0.00,,SKC,0.19,VWS V14.01,2013-05-30 21:48:00,
2013-05-30 17:49:00,86.3,64.9,29.97,North,357,0.0,3.0,49,0.00,,SKC,0.19,VWS V14.01,2013-05-30 21:49:00,
2013-05-30 17:50:00,86.1,65.9,29.98,SE,144,1.0,3.0,51,0.00,,SKC,0.19,VWS V14.01,2013-05-30 21:50:00,
2013-05-30 17:51:00,86.1,64.7,29.97,North,357,0.0,0.0,49,0.00,,SKC,0.19,VWS V14.01,2013-05-30 21:51:00,
2013-05-30 17:54:00,85.9,66.8,29.97,WNW,298,0.0,1.0,53,0.00,,SKC,0.19,VWS V14.01,2013-05-30 21:54:00,
2013-05-30 17:55:00,85.9,64.5,29.97,WSW,254,3.0,5.0,49,0.00,,SKC,0.19,VWS V14.01,2013-05-30 21:55:00,
2013-05-30 17:56:00,85.9,64.5,29.97,WSW,247,0.0,1.0,49,0.00,,SKC,0.19,VWS V14.01,2013-05-30 21:56:00,
2013-05-30 17:59:00,85.9,65.1,29.98,SSW,213,0.0,1.0,50,0.00,,SKC,0.19,VWS V14.01,2013-05-30 21:59:00,
2013-05-30 18:00:00,85.7,64.4,29.98,SSW,212,0.0,1.0,49,0.00,,SKC,0.19,VWS V14.01,2013-05-30 22:00:00,
2013-05-30 18:01:00,85.7,64.9,29.98,SW,215,0.0,0.0,50,0.00,,SKC,0.19,VWS V14.01,2013-05-30 22:01:00,
2013-05-30 18:02:00,85.7,64.9,29.98,SSW,212,0.0,0.0,50,0.00,,SKC,0.19,VWS V14.01,2013-05-30 22:02:00,
2013-05-30 18:04:00,85.7,65.5,29.98,NNW,330,2.0,2.0,51,0.00,,SKC,0.19,VWS V14.01,2013-05-30 22:04:00,
2013-05-30 18:05:00,85.7,66.1,29.98,NNW,329,0.0,2.0,52,0.00,,SKC,0.19,VWS V14.01,2013-05-30 22:05:00,
2013-05-30 18:08:00,85.7,65.5,29.98,NNW,330,0.0,0.0,51,0.00,,SKC,0.19,VWS V14.01,2013-05-30 22:08:00,
2013-05-30 18:09:00,85.7,65.5,29.98,NW,326,1.0,2.0,51,0.00,,SKC,0.19,VWS V14.01,2013-05-30 22:09:00,
2013-05-30 18:10:00,85.5,65.3,29.98,NNW,329,0.0,2.0,51,0.00,,SKC,0.19,VWS V14.01,2013-05-30 22:10:00,
2013-05-30 18:13:00,85.5,65.3,29.98,WSW,254,0.0,3.0,51,0.00,,SKC,0.19,VWS V14.01,2013-05-30 22:13:00,
2013-05-30 18:14:00,85.5,64.8,29.97,WSW,251,0.0,3.0,50,0.00,,SKC,0.19,VWS V14.01,2013-05-30 22:14:00,
2013-05-30 18:15:00,85.5,64.8,29.97,WSW,254,0.0,3.0,50,0.00,,SKC,0.19,VWS V14.01,2013-05-30 22:15:00,
2013-05-30 18:18:00,85.5,65.3,29.97,ESE,121,2.0,2.0,51,0.00,,SKC,0.19,VWS V14.01,2013-05-30 22:18:00,
2013-05-30 18:19:00,85.5,65.3,29.97,ESE,121,0.0,2.0,51,0.00,,SKC,0.19,VWS V14.01,2013-05-30 22:19:00,
2013-05-30 18:20:00,85.5,65.3,29.97,SE,124,0.0,2.0,51,0.00,,SKC,0.19,VWS V14.01,2013-05-30 22:20:00,
2013-05-30 18:21:00,85.5,65.3,29.97,North,357,1.0,5.0,51,0.00,,SKC,0.19,VWS V14.01,2013-05-30 22:21:00,
2013-05-30 18:24:00,85.5,66.4,29.97,North,357,0.0,5.0,53,0.00,,SKC,0.19,VWS V14.01,2013-05-30 22:24:00,
2013-05-30 18:25:00,85.3,64.6,29.97,North,357,0.0,0.0,50,0.00,,SKC,0.19,VWS V14.01,2013-05-30 22:25:00,
2013-05-30 18:26:00,85.3,64.6,29.97,North,357,0.0,0.0,50,0.00,,SKC,0.19,VWS V14.01,2013-05-30 22:26:00,
2013-05-30 18:27:00,85.3,64.6,29.97,North,357,0.0,0.0,50,0.00,,SKC,0.19,VWS V14.01,2013-05-30 22:27:00,
2013-05-30 18:30:00,85.3,65.7,29.98,ESE,121,0.0,0.0,52,0.00,,SKC,0.19,VWS V14.01,2013-05-30 22:30:00,
2013-05-30 18:31:00,85.3,65.1,29.98,ESE,121,0.0,0.0,51,0.00,,SKC,0.19,VWS V14.01,2013-05-30 22:31:00,
2013-05-30 18:32:00,85.3,65.1,29.98,SE,126,0.0,0.0,51,0.00,,SKC,0.19,VWS V14.01,2013-05-30 22:32:00,
2013-05-30 18:35:00,85.3,65.1,29.98,ESE,119,0.0,0.0,51,0.00,,SKC,0.19,VWS V14.01,2013-05-30 22:35:00,
2013-05-30 18:36:00,85.3,65.1,29.98,ESE,119,0.0,0.0,51,0.00,,SKC,0.19,VWS V14.01,2013-05-30 22:36:00,
2013-05-30 18:37:00,85.3,66.8,29.98,ESE,120,0.0,0.0,54,0.00,,SKC,0.19,VWS V14.01,2013-05-30 22:37:00,
2013-05-30 18:40:00,85.1,66.6,29.98,ESE,121,0.0,0.0,54,0.00,,SKC,0.19,VWS V14.01,2013-05-30 22:40:00,
2013-05-30 18:43:00,85.1,66.1,29.98,ESE,123,0.0,0.0,53,0.00,,SKC,0.19,VWS V14.01,2013-05-30 22:43:00,
2013-05-30 18:45:00,84.9,66.9,29.98,ESE,123,0.0,0.0,55,0.00,,SKC,0.19,VWS V14.01,2013-05-30 22:45:00,
2013-05-30 18:46:00,84.9,66.9,29.98,ESE,121,0.0,0.0,55,0.00,,SKC,0.19,VWS V14.01,2013-05-30 22:46:00,
2013-05-30 18:48:00,84.7,66.2,29.98,NW,315,1.0,2.0,54,0.00,,SKC,0.19,VWS V14.01,2013-05-30 22:48:00,
2013-05-30 18:49:00,84.7,66.2,29.98,NW,315,0.0,2.0,54,0.00,,SKC,0.19,VWS V14.01,2013-05-30 22:49:00,
2013-05-30 18:50:00,84.5,65.5,29.98,NW,315,0.0,0.0,53,0.00,,SKC,0.19,VWS V14.01,2013-05-30 22:50:00,
2013-05-30 18:51:00,84.5,65.5,29.98,NW,313,0.0,0.0,53,0.00,,SKC,0.19,VWS V14.01,2013-05-30 22:51:00,
2013-05-30 18:53:00,84.5,65.5,29.98,NW,315,0.0,0.0,53,0.00,,SKC,0.19,VWS V14.01,2013-05-30 22:53:00,
2013-05-30 18:54:00,84.3,65.3,29.98,NW,315,0.0,0.0,53,0.00,,SKC,0.19,VWS V14.01,2013-05-30 22:54:00,
2013-05-30 18:55:00,84.3,66.4,29.98,NNW,342,0.0,0.0,55,0.00,,SKC,0.19,VWS V14.01,2013-05-30 22:55:00,
2013-05-30 18:56:00,84.3,66.4,29.98,NNW,342,0.0,0.0,55,0.00,,SKC,0.19,VWS V14.01,2013-05-30 22:56:00,
2013-05-30 18:58:00,84.3,66.9,29.98,NNW,342,0.0,1.0,56,0.00,,SKC,0.19,VWS V14.01,2013-05-30 22:58:00,
2013-05-30 18:59:00,84.3,66.9,29.98,NNW,343,0.0,1.0,56,0.00,,SKC,0.19,VWS V14.01,2013-05-30 22:59:00,
2013-05-30 19:00:00,85.7,64.4,29.98,SSW,212,0.0,1.0,49,0.00,,SKC,0.19,VWS V14.01,2013-05-30 23:00:00,
2013-05-30 19:01:00,84.1,66.7,29.98,NNW,343,0.0,0.0,56,0.00,,SKC,0.19,VWS V14.01,2013-05-30 23:01:00,
2013-05-30 19:03:00,84.1,66.2,29.98,NNW,342,0.0,0.0,55,0.00,,SKC,0.19,VWS V14.01,2013-05-30 23:03:00,
2013-05-30 19:05:00,84.0,66.6,29.98,NNW,340,0.0,0.0,56,0.00,,SKC,0.19,VWS V14.01,2013-05-30 23:05:00,
2013-05-30 19:06:00,84.0,66.6,29.98,NNW,342,0.0,0.0,56,0.00,,SKC,0.19,VWS V14.01,2013-05-30 23:06:00,
2013-05-30 19:07:00,84.0,66.6,29.98,NNW,339,0.0,0.0,56,0.00,,SKC,0.19,VWS V14.01,2013-05-30 23:07:00,
2013-05-30 19:09:00,84.0,66.1,29.98,NNW,343,0.0,0.0,55,0.00,,SKC,0.19,VWS V14.01,2013-05-30 23:09:00,
2013-05-30 19:10:00,84.0,66.1,29.98,NNW,340,0.0,0.0,55,0.00,,SKC,0.19,VWS V14.01,2013-05-30 23:10:00,
2013-05-30 19:12:00,83.8,65.9,29.98,NNW,339,0.0,0.0,55,0.00,,SKC,0.19,VWS V14.01,2013-05-30 23:12:00,
2013-05-30 19:15:00,83.8,66.4,29.98,NNW,343,0.0,0.0,56,0.00,,SKC,0.19,VWS V14.01,2013-05-30 23:15:00,
2013-05-30 19:17:00,83.8,66.4,29.98,NNW,342,0.0,0.0,56,0.00,,SKC,0.19,VWS V14.01,2013-05-30 23:17:00,
2013-05-30 19:20:00,85.5,65.3,29.97,SE,124,0.0,2.0,51,0.00,,SKC,0.19,VWS V14.01,2013-05-30 23:20:00,
2013-05-30 19:21:00,83.6,66.8,29.98,NNW,340,0.0,0.0,57,0.00,,SKC,0.19,VWS V14.01,2013-05-30 23:21:00,
2013-05-30 19:22:00,83.4,66.6,29.98,NNW,343,0.0,0.0,57,0.00,,SKC,0.19,VWS V14.01,2013-05-30 23:22:00,
2013-05-30 19:23:00,83.4,66.6,29.98,NNW,340,0.0,0.0,57,0.00,,SKC,0.19,VWS V14.01,2013-05-30 23:23:00,
2013-05-30 19:25:00,85.3,64.6,29.97,North,357,0.0,5.0,50,0.00,,SKC,0.19,VWS V14.01,2013-05-30 23:25:00,
2013-05-30 19:26:00,83.2,66.9,29.98,NNW,340,0.0,0.0,58,0.00,,SKC,0.19,VWS V14.01,2013-05-30 23:26:00,
2013-05-30 19:27:00,83.2,67.4,29.98,NNW,343,0.0,0.0,59,0.00,,SKC,0.19,VWS V14.01,2013-05-30 23:27:00,
2013-05-30 19:29:00,83.2,67.4,29.98,NNW,339,0.0,0.0,59,0.00,,SKC,0.19,VWS V14.01,2013-05-30 23:29:00,
2013-05-30 19:30:00,85.3,65.7,29.98,ESE,120,0.0,0.0,52,0.00,,SKC,0.19,VWS V14.01,2013-05-30 23:30:00,
2013-05-30 19:31:00,83.0,67.7,29.99,NNW,339,0.0,0.0,60,0.00,,SKC,0.19,VWS V14.01,2013-05-30 23:31:00,
2013-05-30 19:33:00,82.8,67.5,29.99,NNW,343,0.0,0.0,60,0.00,,SKC,0.19,VWS V14.01,2013-05-30 23:33:00,
2013-05-30 19:34:00,82.8,67.5,29.99,NNW,343,0.0,0.0,60,0.00,,SKC,0.19,VWS V14.01,2013-05-30 23:34:00,
2013-05-30 19:35:00,85.3,65.1,29.98,ESE,119,0.0,0.0,51,0.00,,SKC,0.19,VWS V14.01,2013-05-30 23:35:00,
2013-05-30 19:37:00,82.6,67.3,29.99,NNW,342,0.0,0.0,60,0.00,,SKC,0.19,VWS V14.01,2013-05-30 23:37:00,
2013-05-30 19:38:00,82.4,67.1,29.99,NNW,342,0.0,0.0,60,0.00,,SKC,0.19,VWS V14.01,2013-05-30 23:38:00,
2013-05-30 19:39:00,82.4,67.1,29.99,NNW,340,0.0,0.0,60,0.00,,SKC,0.19,VWS V14.01,2013-05-30 23:39:00,
2013-05-30 19:40:00,85.1,66.6,29.98,SE,126,0.0,0.0,54,0.00,,SKC,0.19,VWS V14.01,2013-05-30 23:40:00,
2013-05-30 19:42:00,82.2,66.9,29.99,NNW,340,0.0,0.0,60,0.00,,SKC,0.19,VWS V14.01,2013-05-30 23:42:00,
2013-05-30 19:43:00,82.2,66.9,29.99,NNW,343,0.0,0.0,60,0.00,,SKC,0.19,VWS V14.01,2013-05-30 23:43:00,
2013-05-30 19:44:00,82.0,66.8,29.99,NNW,337,0.0,0.0,60,0.00,,SKC,0.19,VWS V14.01,2013-05-30 23:44:00,
2013-05-30 19:45:00,84.9,66.9,29.98,ESE,120,0.0,0.0,55,0.00,,SKC,0.19,VWS V14.01,2013-05-30 23:45:00,
2013-05-30 19:47:00,81.8,67.1,29.99,NNW,343,0.0,0.0,61,0.00,,SKC,0.19,VWS V14.01,2013-05-30 23:47:00,
2013-05-30 19:49:00,81.6,67.3,29.99,NNW,340,0.0,0.0,62,0.00,,SKC,0.19,VWS V14.01,2013-05-30 23:49:00,
2013-05-30 19:50:00,81.6,67.3,29.99,NNW,342,0.0,0.0,62,0.00,,SKC,0.19,VWS V14.01,2013-05-30 23:50:00,
2013-05-30 19:52:00,81.2,66.9,29.99,NNW,342,0.0,0.0,62,0.00,,SKC,0.19,VWS V14.01,2013-05-30 23:52:00,
2013-05-30 19:54:00,81.2,67.4,29.99,NNW,342,0.0,0.0,63,0.00,,SKC,0.19,VWS V14.01,2013-05-30 23:54:00,
2013-05-30 19:55:00,81.2,67.4,29.99,NNW,342,0.0,0.0,63,0.00,,SKC,0.19,VWS V14.01,2013-05-30 23:55:00,
2013-05-30 19:58:00,80.9,67.6,29.99,NNW,342,0.0,0.0,64,0.00,,SKC,0.19,VWS V14.01,2013-05-30 23:58:00,
2013-05-30 19:59:00,80.7,67.4,29.99,NNW,342,0.0,0.0,64,0.00,,SKC,0.19,VWS V14.01,2013-05-30 23:59:00,
2013-05-30 20:00:00,80.7,67.4,29.99,NNW,339,0.0,0.0,64,0.00,,SKC,0.19,VWS V14.01,2013-05-31 00:00:00,
2013-05-30 20:01:00,80.5,67.7,29.99,NNW,343,0.0,0.0,65,0.00,,SKC,0.19,VWS V14.01,2013-05-31 00:01:00,
2013-05-30 20:03:00,80.3,67.5,29.99,NNW,342,0.0,0.0,65,0.00,,SKC,0.19,VWS V14.01,2013-05-31 00:03:00,
2013-05-30 20:05:00,79.9,67.5,29.99,NNW,342,0.0,0.0,66,0.00,,SKC,0.19,VWS V14.01,2013-05-31 00:05:00,
2013-05-30 20:06:00,79.9,67.5,29.99,NNW,343,0.0,0.0,66,0.00,,SKC,0.19,VWS V14.01,2013-05-31 00:06:00,
2013-05-30 20:09:00,79.6,68.1,29.99,NNW,342,0.0,0.0,68,0.00,,SKC,0.19,VWS V14.01,2013-05-31 00:09:00,
2013-05-30 20:10:00,84.0,66.1,29.98,NNW,343,0.0,0.0,55,0.00,,SKC,0.19,VWS V14.01,2013-05-31 00:10:00,
2013-05-30 20:11:00,79.4,68.8,29.99,NNW,340,0.0,0.0,70,0.00,,SKC,0.19,VWS V14.01,2013-05-31 00:11:00,
2013-05-30 20:12:00,79.2,68.6,29.99,NNW,339,0.0,0.0,70,0.00,,SKC,0.19,VWS V14.01,2013-05-31 00:12:00,
2013-05-30 20:14:00,78.8,68.6,29.99,NNW,343,0.0,0.0,71,0.00,,SKC,0.19,VWS V14.01,2013-05-31 00:14:00,
2013-05-30 20:15:00,83.8,66.4,29.98,NNW,340,0.0,0.0,56,0.00,,SKC,0.19,VWS V14.01,2013-05-31 00:15:00,
2013-05-30 20:16:00,78.8,68.6,29.99,NNW,337,0.0,0.0,71,0.00,,SKC,0.19,VWS V14.01,2013-05-31 00:16:00,
2013-05-30 20:17:00,78.6,68.4,29.99,NNW,337,0.0,0.0,71,0.00,,SKC,0.19,VWS V14.01,2013-05-31 00:17:00,
2013-05-30 20:20:00,78.3,68.1,29.99,NNW,342,0.0,0.0,71,0.00,,SKC,0.19,VWS V14.01,2013-05-31 00:20:00,
2013-05-30 20:21:00,78.3,68.5,29.99,NNW,339,0.0,0.0,72,0.00,,SKC,0.19,VWS V14.01,2013-05-31 00:21:00,
2013-05-30 20:22:00,78.3,68.5,29.99,NNW,342,0.0,0.0,72,0.00,,SKC,0.19,VWS V14.01,2013-05-31 00:22:00,
2013-05-30 20:23:00,78.1,68.3,29.99,NNW,342,0.0,0.0,72,0.00,,SKC,0.19,VWS V14.01,2013-05-31 00:23:00,
2013-05-30 20:25:00,78.1,68.3,29.99,NNW,339,0.0,0.0,72,0.00,,SKC,0.19,VWS V14.01,2013-05-31 00:25:00,
2013-05-30 20:27:00,77.9,68.2,29.99,NNW,340,0.0,0.0,72,0.00,,SKC,0.19,VWS V14.01,2013-05-31 00:27:00,
2013-05-30 20:28:00,77.9,68.2,29.99,NNW,342,0.0,0.0,72,0.00,,SKC,0.19,VWS V14.01,2013-05-31 00:28:00,
2013-05-30 20:30:00,77.7,68.0,29.99,NNW,342,0.0,0.0,72,0.00,,SKC,0.19,VWS V14.01,2013-05-31 00:30:00,
2013-05-30 20:32:00,77.6,67.9,29.99,NNW,339,0.0,0.0,72,0.00,,SKC,0.19,VWS V14.01,2013-05-31 00:32:00,
2013-05-30 20:33:00,77.6,67.9,29.99,NNW,342,0.0,0.0,72,0.00,,SKC,0.19,VWS V14.01,2013-05-31 00:33:00,
2013-05-30 20:35:00,82.6,67.3,29.99,NNW,337,0.0,0.0,60,0.00,,SKC,0.19,VWS V14.01,2013-05-31 00:35:00,
2013-05-30 20:36:00,77.6,68.3,29.99,NNW,342,0.0,0.0,73,0.00,,SKC,0.19,VWS V14.01,2013-05-31 00:36:00,
2013-05-30 20:37:00,77.4,68.1,29.99,NNW,342,0.0,0.0,73,0.00,,SKC,0.19,VWS V14.01,2013-05-31 00:37:00,
2013-05-30 20:38:00,77.4,67.7,29.99,NNW,340,0.0,0.0,72,0.00,,SKC,0.19,VWS V14.01,2013-05-31 00:38:00,
2013-05-30 20:40:00,82.4,67.1,29.99,NNW,343,0.0,0.0,60,0.00,,SKC,0.19,VWS V14.01,2013-05-31 00:40:00,
2013-05-30 20:41:00,77.2,67.5,29.99,NNW,342,0.0,0.0,72,0.00,,SKC,0.19,VWS V14.01,2013-05-31 00:41:00,
2013-05-30 20:43:00,77.0,67.3,29.99,NNW,342,0.0,0.0,72,0.00,,SKC,0.19,VWS V14.01,2013-05-31 00:43:00,
2013-05-30 20:44:00,77.2,67.5,29.99,NNW,342,0.0,0.0,72,0.00,,SKC,0.19,VWS V14.01,2013-05-31 00:44:00,
2013-05-30 20:45:00,82.0,67.2,29.99,NNW,337,0.0,0.0,61,0.00,,SKC,0.19,VWS V14.01,2013-05-31 00:45:00,
2013-05-30 20:47:00,77.2,68.3,30.00,NNW,342,0.0,0.0,74,0.00,,SKC,0.19,VWS V14.01,2013-05-31 00:47:00,
2013-05-30 20:49:00,77.2,68.3,30.00,NNW,339,0.0,0.0,74,0.00,,SKC,0.19,VWS V14.01,2013-05-31 00:49:00,
2013-05-30 20:50:00,81.6,67.3,29.99,NNW,342,0.0,0.0,62,0.00,,SKC,0.19,VWS V14.01,2013-05-31 00:50:00,
2013-05-30 20:53:00,77.0,68.1,30.00,NNW,342,0.0,0.0,74,0.00,,SKC,0.19,VWS V14.01,2013-05-31 00:53:00,
2013-05-30 20:54:00,77.0,68.1,30.00,NNW,343,0.0,0.0,74,0.00,,SKC,0.19,VWS V14.01,2013-05-31 00:54:00,
2013-05-30 20:55:00,81.1,67.3,29.99,NNW,340,0.0,0.0,63,0.00,,SKC,0.19,VWS V14.01,2013-05-31 00:55:00,
2013-05-30 20:59:00,76.8,68.3,30.00,NNW,342,0.0,0.0,75,0.00,,SKC,0.19,VWS V14.01,2013-05-31 00:59:00,
2013-05-30 21:00:00,76.8,68.3,30.00,NNW,343,0.0,0.0,75,0.00,,SKC,0.19,VWS V14.01,2013-05-31 01:00:00,
2013-05-30 21:01:00,76.8,68.3,30.00,NNW,340,0.0,0.0,75,0.00,,SKC,0.19,VWS V14.01,2013-05-31 01:01:00,
2013-05-30 21:04:00,76.7,68.2,30.00,NNW,343,0.0,0.0,75,0.00,,SKC,0.19,VWS V14.01,2013-05-31 01:04:00,
2013-05-30 21:05:00,76.7,68.6,30.00,NNW,339,0.0,0.0,76,0.00,,SKC,0.19,VWS V14.01,2013-05-31 01:05:00,
2013-05-30 21:06:00,76.5,68.4,30.00,NNW,342,0.0,0.0,76,0.00,,SKC,0.19,VWS V14.01,2013-05-31 01:06:00,
2013-05-30 21:09:00,76.5,68.4,30.00,NNW,342,0.0,0.0,76,0.00,,SKC,0.19,VWS V14.01,2013-05-31 01:09:00,
2013-05-30 21:10:00,76.5,68.4,30.00,NNW,339,0.0,0.0,76,0.00,,SKC,0.19,VWS V14.01,2013-05-31 01:10:00,
2013-05-30 21:11:00,76.3,68.6,30.00,NNW,342,0.0,0.0,77,0.00,,SKC,0.19,VWS V14.01,2013-05-31 01:11:00,
2013-05-30 21:12:00,76.3,68.6,30.00,NNW,340,0.0,0.0,77,0.00,,SKC,0.19,VWS V14.01,2013-05-31 01:12:00,
2013-05-30 21:14:00,76.3,68.6,30.00,NNW,342,0.0,0.0,77,0.00,,SKC,0.19,VWS V14.01,2013-05-31 01:14:00,
2013-05-30 21:15:00,76.3,68.2,30.00,NNW,339,0.0,0.0,76,0.00,,SKC,0.19,VWS V14.01,2013-05-31 01:15:00,
2013-05-30 21:16:00,76.1,68.0,30.00,NNW,342,0.0,0.0,76,0.00,,SKC,0.19,VWS V14.01,2013-05-31 01:16:00,
2013-05-30 21:17:00,76.1,68.0,30.00,NNW,342,0.0,0.0,76,0.00,,SKC,0.19,VWS V14.01,2013-05-31 01:17:00,
2013-05-30 21:19:00,76.1,68.0,30.00,NNW,339,0.0,0.0,76,0.00,,SKC,0.19,VWS V14.01,2013-05-31 01:19:00,
2013-05-30 21:20:00,76.1,68.0,30.00,NNW,342,0.0,0.0,76,0.00,,SKC,0.19,VWS V14.01,2013-05-31 01:20:00,
2013-05-30 21:21:00,76.1,68.0,30.00,NNW,342,0.0,0.0,76,0.00,,SKC,0.19,VWS V14.01,2013-05-31 01:21:00,
2013-05-30 21:22:00,76.0,68.3,30.00,NNW,342,0.0,0.0,77,0.00,,SKC,0.19,VWS V14.01,2013-05-31 01:22:00,
2013-05-30 21:24:00,76.0,68.3,30.00,NNW,343,0.0,0.0,77,0.00,,SKC,0.19,VWS V14.01,2013-05-31 01:24:00,
2013-05-30 21:25:00,76.0,68.3,30.00,NNW,342,0.0,0.0,77,0.00,,SKC,0.19,VWS V14.01,2013-05-31 01:25:00,
2013-05-30 21:26:00,76.0,68.3,30.00,NNW,342,0.0,0.0,77,0.00,,SKC,0.19,VWS V14.01,2013-05-31 01:26:00,
2013-05-30 21:27:00,76.0,68.3,30.00,NNW,342,0.0,0.0,77,0.00,,SKC,0.19,VWS V14.01,2013-05-31 01:27:00,
2013-05-30 21:28:00,75.8,68.1,30.00,NNW,342,0.0,0.0,77,0.00,,SKC,0.19,VWS V14.01,2013-05-31 01:28:00,
2013-05-30 21:30:00,75.8,68.5,30.01,NNW,342,0.0,0.0,78,0.00,,SKC,0.19,VWS V14.01,2013-05-31 01:30:00,
2013-05-30 21:32:00,75.8,68.5,30.01,NNW,339,0.0,0.0,78,0.00,,SKC,0.19,VWS V14.01,2013-05-31 01:32:00,
2013-05-30 21:34:00,75.8,68.5,30.01,NNW,342,0.0,0.0,78,0.00,,SKC,0.19,VWS V14.01,2013-05-31 01:34:00,
2013-05-30 21:35:00,75.6,68.3,30.01,NNW,343,0.0,0.0,78,0.00,,SKC,0.19,VWS V14.01,2013-05-31 01:35:00,
2013-05-30 21:36:00,75.6,68.3,30.01,NNW,337,0.0,0.0,78,0.00,,SKC,0.19,VWS V14.01,2013-05-31 01:36:00,
2013-05-30 21:37:00,75.4,68.1,30.01,NNW,342,0.0,0.0,78,0.00,,SKC,0.19,VWS V14.01,2013-05-31 01:37:00,
2013-05-30 21:38:00,75.4,68.1,30.01,NNW,342,0.0,0.0,78,0.00,,SKC,0.19,VWS V14.01,2013-05-31 01:38:00,
2013-05-30 21:39:00,75.4,68.1,30.01,NNW,339,0.0,0.0,78,0.00,,SKC,0.19,VWS V14.01,2013-05-31 01:39:00,
2013-05-30 21:40:00,75.4,68.1,30.01,NNW,339,0.0,0.0,78,0.00,,SKC,0.19,VWS V14.01,2013-05-31 01:40:00,
2013-05-30 21:41:00,75.4,68.1,30.01,NNW,340,0.0,0.0,78,0.00,,SKC,0.19,VWS V14.01,2013-05-31 01:41:00,
2013-05-30 21:43:00,75.4,68.1,30.01,NNW,342,0.0,0.0,78,0.00,,SKC,0.19,VWS V14.01,2013-05-31 01:43:00,
2013-05-30 21:44:00,75.4,68.1,30.01,NNW,343,0.0,0.0,78,0.00,,SKC,0.19,VWS V14.01,2013-05-31 01:44:00,
2013-05-30 21:45:00,75.4,68.1,30.01,NNW,343,0.0,0.0,78,0.00,,SKC,0.19,VWS V14.01,2013-05-31 01:45:00,
2013-05-30 21:46:00,75.4,68.1,30.01,NNW,343,0.0,0.0,78,0.00,,SKC,0.19,VWS V14.01,2013-05-31 01:46:00,
2013-05-30 21:48:00,75.3,68.0,30.01,NNW,339,0.0,0.0,78,0.00,,SKC,0.19,VWS V14.01,2013-05-31 01:48:00,
2013-05-30 21:50:00,75.3,68.0,30.01,NNW,343,0.0,0.0,78,0.00,,SKC,0.19,VWS V14.01,2013-05-31 01:50:00,
2013-05-30 21:52:00,75.3,68.7,30.01,NNW,342,0.0,0.0,80,0.00,,SKC,0.19,VWS V14.01,2013-05-31 01:52:00,
2013-05-30 21:53:00,75.3,68.3,30.01,NNW,343,0.0,0.0,79,0.00,,SKC,0.19,VWS V14.01,2013-05-31 01:53:00,
2013-05-30 21:54:00,75.3,68.3,30.01,NNW,343,0.0,0.0,79,0.00,,SKC,0.19,VWS V14.01,2013-05-31 01:54:00,
2013-05-30 21:55:00,75.1,68.5,30.01,NNW,343,0.0,0.0,80,0.00,,SKC,0.19,VWS V14.01,2013-05-31 01:55:00,
2013-05-30 21:57:00,74.9,68.3,30.01,NNW,343,0.0,0.0,80,0.00,,SKC,0.19,VWS V14.01,2013-05-31 01:57:00,
2013-05-30 21:58:00,74.9,68.3,30.01,NNW,343,0.0,0.0,80,0.00,,SKC,0.19,VWS V14.01,2013-05-31 01:58:00,
2013-05-30 21:59:00,74.9,68.3,30.01,NNW,340,0.0,0.0,80,0.00,,SKC,0.19,VWS V14.01,2013-05-31 01:59:00,
2013-05-30 22:00:00,74.7,68.1,30.01,NNW,343,0.0,0.0,80,0.00,,SKC,0.19,VWS V14.01,2013-05-31 02:00:00,
2013-05-30 22:02:00,74.7,68.5,30.01,NNW,343,0.0,0.0,81,0.00,,SKC,0.19,VWS V14.01,2013-05-31 02:02:00,
2013-05-30 22:04:00,74.6,68.4,30.01,NNW,342,0.0,0.0,81,0.00,,SKC,0.19,VWS V14.01,2013-05-31 02:04:00,
2013-05-30 22:05:00,74.6,68.4,30.01,NNW,343,0.0,0.0,81,0.00,,SKC,0.19,VWS V14.01,2013-05-31 02:05:00,
2013-05-30 22:08:00,74.6,68.4,30.01,NNW,343,0.0,0.0,81,0.00,,SKC,0.19,VWS V14.01,2013-05-31 02:08:00,
2013-05-30 22:10:00,74.4,68.6,30.01,NNW,342,0.0,0.0,82,0.00,,SKC,0.19,VWS V14.01,2013-05-31 02:10:00,
2013-05-30 22:11:00,74.4,68.6,30.01,NNW,342,0.0,0.0,82,0.00,,SKC,0.19,VWS V14.01,2013-05-31 02:11:00,
2013-05-30 22:14:00,74.2,68.4,30.01,NNW,344,0.0,1.0,82,0.00,,SKC,0.19,VWS V14.01,2013-05-31 02:14:00,
2013-05-30 22:15:00,74.2,68.0,30.01,NNW,342,0.0,0.0,81,0.00,,SKC,0.19,VWS V14.01,2013-05-31 02:15:00,
2013-05-30 22:16:00,74.2,68.0,30.01,NNW,343,0.0,0.0,81,0.00,,SKC,0.19,VWS V14.01,2013-05-31 02:16:00,
2013-05-30 22:17:00,74.2,68.0,30.01,NNW,343,0.0,0.0,81,0.00,,SKC,0.19,VWS V14.01,2013-05-31 02:17:00,
2013-05-30 22:19:00,74.2,68.0,30.01,NNW,343,0.0,0.0,81,0.00,,SKC,0.19,VWS V14.01,2013-05-31 02:19:00,
2013-05-30 22:20:00,74.2,68.0,30.01,NNW,343,0.0,0.0,81,0.00,,SKC,0.19,VWS V14.01,2013-05-31 02:20:00,
2013-05-30 22:21:00,74.2,68.0,30.01,NNW,343,0.0,0.0,81,0.00,,SKC,0.19,VWS V14.01,2013-05-31 02:21:00,
2013-05-30 22:22:00,74.2,68.0,30.01,NNW,344,0.0,1.0,81,0.00,,SKC,0.19,VWS V14.01,2013-05-31 02:22:00,
2013-05-30 22:25:00,74.2,67.3,30.01,NNW,343,0.0,1.0,79,0.00,,SKC,0.19,VWS V14.01,2013-05-31 02:25:00,
2013-05-30 22:26:00,74.4,67.5,30.01,NNW,343,0.0,0.0,79,0.00,,SKC,0.19,VWS V14.01,2013-05-31 02:26:00,
2013-05-30 22:27:00,74.4,67.8,30.01,NNW,340,0.0,0.0,80,0.00,,SKC,0.19,VWS V14.01,2013-05-31 02:27:00,
2013-05-30 22:30:00,74.4,67.5,30.01,NNW,342,0.0,2.0,79,0.00,,SKC,0.19,VWS V14.01,2013-05-31 02:30:00,
2013-05-30 22:32:00,74.4,67.5,30.01,NNW,343,0.0,0.0,79,0.00,,SKC,0.19,VWS V14.01,2013-05-31 02:32:00,
2013-05-30 22:33:00,74.4,67.5,30.01,NNW,343,0.0,0.0,79,0.00,,SKC,0.19,VWS V14.01,2013-05-31 02:33:00,
2013-05-30 22:35:00,74.4,67.5,30.01,NNW,342,0.0,0.0,79,0.00,,SKC,0.19,VWS V14.01,2013-05-31 02:35:00,
2013-05-30 22:37:00,74.4,67.1,30.01,NNW,342,0.0,0.0,78,0.00,,SKC,0.19,VWS V14.01,2013-05-31 02:37:00,
2013-05-30 22:39:00,74.4,67.5,30.01,NNW,343,0.0,0.0,79,0.00,,SKC,0.19,VWS V14.01,2013-05-31 02:39:00,
2013-05-30 22:40:00,74.4,67.5,30.01,NNW,342,0.0,0.0,79,0.00,,SKC,0.19,VWS V14.01,2013-05-31 02:40:00,
2013-05-30 22:42:00,74.4,67.5,30.01,NNW,343,0.0,0.0,79,0.00,,SKC,0.19,VWS V14.01,2013-05-31 02:42:00,
2013-05-30 22:43:00,74.2,66.9,30.01,NNW,343,0.0,1.0,78,0.00,,SKC,0.19,VWS V14.01,2013-05-31 02:43:00,
2013-05-30 22:44:00,74.2,66.9,30.01,NNW,342,0.0,1.0,78,0.00,,SKC,0.19,VWS V14.01,2013-05-31 02:44:00,
2013-05-30 22:45:00,75.4,68.1,30.01,NNW,342,0.0,0.0,78,0.00,,SKC,0.19,VWS V14.01,2013-05-31 02:45:00,
2013-05-30 22:46:00,74.4,67.1,30.01,NNW,343,0.0,0.0,78,0.00,,SKC,0.19,VWS V14.01,2013-05-31 02:46:00,
2013-05-30 22:47:00,74.4,67.1,30.01,NNW,343,0.0,0.0,78,0.00,,SKC,0.19,VWS V14.01,2013-05-31 02:47:00,
2013-05-30 22:49:00,74.4,67.1,30.01,NNW,344,0.0,0.0,78,0.00,,SKC,0.19,VWS V14.01,2013-05-31 02:49:00,
2013-05-30 22:50:00,74.4,67.1,30.01,NNW,343,0.0,0.0,78,0.00,,SKC,0.19,VWS V14.01,2013-05-31 02:50:00,
2013-05-30 22:51:00,74.2,66.9,30.01,NNW,340,0.0,0.0,78,0.00,,SKC,0.19,VWS V14.01,2013-05-31 02:51:00,
2013-05-30 22:52:00,74.2,66.9,30.01,NNW,342,0.0,0.0,78,0.00,,SKC,0.19,VWS V14.01,2013-05-31 02:52:00,
2013-05-30 22:54:00,74.2,66.9,30.01,NNW,343,0.0,0.0,78,0.00,,SKC,0.19,VWS V14.01,2013-05-31 02:54:00,
2013-05-30 22:55:00,75.1,68.5,30.01,NNW,339,0.0,0.0,80,0.00,,SKC,0.19,VWS V14.01,2013-05-31 02:55:00,
2013-05-30 22:56:00,74.0,67.1,30.01,NNW,343,0.0,0.0,79,0.00,,SKC,0.19,VWS V14.01,2013-05-31 02:56:00,
2013-05-30 22:57:00,74.0,67.1,30.01,NNW,342,0.0,0.0,79,0.00,,SKC,0.19,VWS V14.01,2013-05-31 02:57:00,
2013-05-30 22:59:00,73.9,67.0,30.01,NNW,343,0.0,0.0,79,0.00,,SKC,0.19,VWS V14.01,2013-05-31 02:59:00,
2013-05-30 23:00:00,73.9,67.0,30.01,NNW,343,0.0,0.0,79,0.00,,SKC,0.00,VWS V14.01,2013-05-31 03:00:00,
2013-05-30 23:01:00,73.9,67.0,30.01,NNW,343,0.0,0.0,79,0.00,,SKC,0.00,VWS V14.01,2013-05-31 03:01:00,
2013-05-30 23:02:00,73.7,66.8,30.01,NNW,343,0.0,0.0,79,0.00,,SKC,0.00,VWS V14.01,2013-05-31 03:02:00,
2013-05-30 23:03:00,73.7,66.8,30.01,NNW,340,0.0,0.0,79,0.00,,SKC,0.00,VWS V14.01,2013-05-31 03:03:00,
2013-05-30 23:05:00,73.7,66.8,30.01,NNW,343,0.0,0.0,79,0.00,,SKC,0.00,VWS V14.01,2013-05-31 03:05:00,
2013-05-30 23:07:00,73.5,66.6,30.01,NNW,343,0.0,0.0,79,0.00,,SKC,0.00,VWS V14.01,2013-05-31 03:07:00,
2013-05-30 23:08:00,73.5,66.6,30.01,NNW,340,0.0,0.0,79,0.00,,SKC,0.00,VWS V14.01,2013-05-31 03:08:00,
2013-05-30 23:10:00,73.5,66.6,30.01,NNW,343,0.0,0.0,79,0.00,,SKC,0.00,VWS V14.01,2013-05-31 03:10:00,
2013-05-30 23:12:00,73.5,66.6,30.01,NNW,342,0.0,0.0,79,0.00,,SKC,0.00,VWS V14.01,2013-05-31 03:12:00,
2013-05-30 23:13:00,73.5,66.6,30.01,NNW,343,0.0,0.0,79,0.00,,SKC,0.00,VWS V14.01,2013-05-31 03:13:00,
2013-05-30 23:15:00,73.3,66.4,30.01,NNW,342,0.0,0.0,79,0.00,,SKC,0.00,VWS V14.01,2013-05-31 03:15:00,
2013-05-30 23:16:00,73.3,66.4,30.01,NNW,343,0.0,0.0,79,0.00,,SKC,0.00,VWS V14.01,2013-05-31 03:16:00,
2013-05-30 23:18:00,73.3,66.4,30.01,NNW,343,0.0,0.0,79,0.00,,SKC,0.00,VWS V14.01,2013-05-31 03:18:00,
2013-05-30 23:19:00,73.3,66.4,30.01,NNW,343,0.0,0.0,79,0.00,,SKC,0.00,VWS V14.01,2013-05-31 03:19:00,
2013-05-30 23:20:00,74.2,68.0,30.01,NNW,343,0.0,0.0,81,0.00,,SKC,0.19,VWS V14.01,2013-05-31 03:20:00,
2013-05-30 23:21:00,73.3,66.4,30.01,NNW,342,0.0,0.0,79,0.00,,SKC,0.00,VWS V14.01,2013-05-31 03:21:00,
2013-05-30 23:24:00,73.2,67.0,30.01,NNW,343,0.0,0.0,81,0.00,,SKC,0.00,VWS V14.01,2013-05-31 03:24:00,
2013-05-30 23:25:00,73.2,66.7,30.01,NNW,343,0.0,0.0,80,0.00,,SKC,0.00,VWS V14.01,2013-05-31 03:25:00,
2013-05-30 23:26:00,73.0,66.5,30.01,NNW,343,0.0,0.0,80,0.00,,SKC,0.00,VWS V14.01,2013-05-31 03:26:00,
2013-05-30 23:29:00,73.0,66.8,30.01,NNW,343,0.0,0.0,81,0.00,,SKC,0.00,VWS V14.01,2013-05-31 03:29:00,
2013-05-30 23:30:00,73.0,66.8,30.01,NNW,343,0.0,0.0,81,0.00,,SKC,0.00,VWS V14.01,2013-05-31 03:30:00,
2013-05-30 23:31:00,72.8,66.3,30.01,NNW,342,0.0,0.0,80,0.00,,SKC,0.00,VWS V14.01,2013-05-31 03:31:00,
2013-05-30 23:32:00,72.8,66.3,30.01,NNW,342,0.0,0.0,80,0.00,,SKC,0.00,VWS V14.01,2013-05-31 03:32:00,
2013-05-30 23:34:00,72.8,66.6,30.01,NNW,343,0.0,0.0,81,0.00,,SKC,0.00,VWS V14.01,2013-05-31 03:34:00,
2013-05-30 23:35:00,72.8,66.6,30.01,NNW,343,0.0,0.0,81,0.00,,SKC,0.00,VWS V14.01,2013-05-31 03:35:00,
2013-05-30 23:36:00,72.7,66.5,30.01,NNW,340,0.0,0.0,81,0.00,,SKC,0.00,VWS V14.01,2013-05-31 03:36:00,
2013-05-30 23:37:00,72.7,66.5,30.01,NNW,340,0.0,0.0,81,0.00,,SKC,0.00,VWS V14.01,2013-05-31 03:37:00,
2013-05-30 23:39:00,72.7,66.5,30.01,NNW,342,0.0,0.0,81,0.00,,SKC,0.00,VWS V14.01,2013-05-31 03:39:00,
2013-05-30 23:40:00,72.5,66.3,30.01,NNW,343,0.0,0.0,81,0.00,,SKC,0.00,VWS V14.01,2013-05-31 03:40:00,
2013-05-30 23:42:00,72.5,66.0,30.01,NNW,343,0.0,0.0,80,0.00,,SKC,0.00,VWS V14.01,2013-05-31 03:42:00,
2013-05-30 23:45:00,72.5,66.0,30.01,NNW,342,0.0,0.0,80,0.00,,SKC,0.00,VWS V14.01,2013-05-31 03:45:00,
2013-05-30 23:46:00,72.3,65.8,30.01,NNW,342,0.0,0.0,80,0.00,,SKC,0.00,VWS V14.01,2013-05-31 03:46:00,
2013-05-30 23:47:00,72.3,65.8,30.01,NNW,342,0.0,0.0,80,0.00,,SKC,0.00,VWS V14.01,2013-05-31 03:47:00,
2013-05-30 23:48:00,72.3,65.8,30.01,NNW,342,0.0,0.0,80,0.00,,SKC,0.00,VWS V14.01,2013-05-31 03:48:00,
2013-05-30 23:50:00,74.4,67.1,30.01,NNW,343,0.0,0.0,78,0.00,,SKC,0.19,VWS V14.01,2013-05-31 03:50:00,
2013-05-30 23:51:00,72.3,65.8,30.01,NNW,343,0.0,0.0,80,0.00,,SKC,0.00,VWS V14.01,2013-05-31 03:51:00,
2013-05-30 23:52:00,72.1,65.6,30.01,NNW,340,0.0,0.0,80,0.00,,SKC,0.00,VWS V14.01,2013-05-31 03:52:00,
2013-05-30 23:53:00,72.1,65.6,30.01,NNW,342,0.0,0.0,80,0.00,,SKC,0.00,VWS V14.01,2013-05-31 03:53:00,
2013-05-30 23:55:00,74.2,66.9,30.01,NNW,343,0.0,0.0,78,0.00,,SKC,0.19,VWS V14.01,2013-05-31 03:55:00,
2013-05-30 23:56:00,72.1,65.6,30.01,NNW,340,0.0,0.0,80,0.00,,SKC,0.00,VWS V14.01,2013-05-31 03:56:00,
2013-05-30 23:57:00,72.1,65.6,30.01,NNW,343,0.0,0.0,80,0.00,,SKC,0.00,VWS V14.01,2013-05-31 03:57:00,
2013-05-30 23:58:00,72.1,65.6,30.01,NNW,343,0.0,0.0,80,0.00,,SKC,0.00,VWS V14.01,2013-05-31 03:58:00,
2013-05-30 23:59:00,72.1,65.6,30.01,NNW,342,0.0,0.0,80,0.00,,SKC,0.00,VWS V14.01,2013-05-31 03:59:00,